Time,TemperatureF,DewpointF,PressureIn,WindDirection,WindDirectionDegrees,WindSpeedMPH,WindSpeedGustMPH,Humidity,HourlyPrecipIn,Conditions,Clouds,dailyrainin,SoftwareType,DateUTC
2013-06-01 00:00:00,73.2,56.6,29.93,SSW,209,4.6,4.6,56,0.00,,SCT,0.00,WeatherDisplay:10.37,2013-06-01 04:00:00,
2013-06-01 00:01:00,73.0,56.4,29.93,SE,138,3.5,3.5,56,0.00,,SCT,0.00,WeatherDisplay:10.37,2013-06-01 04:01:00,
2013-06-01 00:02:00,73.0,56.4,29.93,South,180,5.8,5.8,56,0.00,,SCT,0.00,WeatherDisplay:10.37,2013-06-01 04:02:00,
2013-06-01 00:06:00,73.2,56.6,29.93,SW,230,6.0,6.0,56,0.00,,SCT,0.00,WeatherDisplay:10.37,2013-06-01 04:06:00,
2013-06-01 00:07:00,73.3,56.7,29.93,SE,136,10.4,10.4,56,0.00,,SCT,0.00,WeatherDisplay:10.37,2013-06-01 04:07:00,
2013-06-01 00:08:00,73.5,56.8,29.93,SSE,149,9.2,9.2,56,0.00,,SCT,0.00,WeatherDisplay:10.37,2013-06-01 04:08:00,
2013-06-01 00:11:00,73.9,57.2,29.93,SSE,161,8.1,8.1,56,0.00,,SCT,0.00,WeatherDisplay:10.37,2013-06-01 04:11:00,
2013-06-01 00:12:00,74.0,57.3,29.93,SE,140,5.8,5.8,56,0.00,,SCT,0.00,WeatherDisplay:10.37,2013-06-01 04:12:00,
2013-06-01 00:13:00,74.2,57.5,29.93,SE,140,5.8,5.8,56,0.00,,SCT,0.00,WeatherDisplay:10.37,2013-06-01 04:13:00,
2013-06-01 00:16:00,74.6,57.9,29.93,SE,140,1.0,1.0,56,0.00,,SCT,0.00,WeatherDisplay:10.37,2013-06-01 04:16:00,
2013-06-01 00:17:00,74.6,57.9,29.93,SE,140,3.0,3.0,56,0.00,,SCT,0.00,WeatherDisplay:10.37,2013-06-01 04:17:00,
2013-06-01 00:19:00,74.7,58.0,29.93,South,180,4.6,4.6,56,0.00,,SCT,0.00,WeatherDisplay:10.37,2013-06-01 04:19:00,
2013-06-01 00:21:00,74.9,57.6,29.93,South,180,4.6,4.6,55,0.00,,SCT,0.00,WeatherDisplay:10.37,2013-06-01 04:21:00,
2013-06-01 00:23:00,74.9,57.6,29.93,SSE,156,1.1,2.2,55,0.00,,SCT,0.00,WeatherDisplay:10.37,2013-06-01 04:23:00,
2013-06-01 00:24:00,75.1,57.8,29.93,SSE,156,4.6,4.6,55,0.00,,SCT,0.00,WeatherDisplay:10.37,2013-06-01 04:24:00,
2013-06-01 00:25:00,75.1,57.8,29.93,SSE,156,1.1,0.0,55,0.00,,SCT,0.00,WeatherDisplay:10.37,2013-06-01 04:25:00,
2013-06-01 00:28:00,75.1,57.8,29.93,WSW,257,3.5,0.0,55,0.00,,SCT,0.00,WeatherDisplay:10.37,2013-06-01 04:28:00,
2013-06-01 00:29:00,75.3,58.0,29.93,WSW,257,0.0,0.0,55,0.00,,SCT,0.00,WeatherDisplay:10.37,2013-06-01 04:29:00,
2013-06-01 00:30:00,75.3,58.0,29.93,WSW,254,2.3,2.3,55,0.00,,SCT,0.00,WeatherDisplay:10.37,2013-06-01 04:30:00,
2013-06-01 00:31:00,75.3,58.0,29.93,WSW,254,3.5,3.5,55,0.00,,SCT,0.00,WeatherDisplay:10.37,2013-06-01 04:31:00,
2013-06-01 00:32:00,75.3,58.0,29.93,WSW,254,3.5,3.5,55,0.00,,SCT,0.00,WeatherDisplay:10.37,2013-06-01 04:32:00,
2013-06-01 00:36:00,75.3,58.0,29.93,SSW,211,3.0,3.0,55,0.00,,SCT,0.00,WeatherDisplay:10.37,2013-06-01 04:36:00,
2013-06-01 00:37:00,75.3,58.0,29.93,SSW,211,4.6,4.6,55,0.00,,SCT,0.00,WeatherDisplay:10.37,2013-06-01 04:37:00,
2013-06-01 00:38:00,75.3,58.0,29.93,SSW,211,2.3,0.0,55,0.00,,SCT,0.00,WeatherDisplay:10.37,2013-06-01 04:38:00,
2013-06-01 00:40:00,75.3,58.0,29.92,SSW,211,0.0,0.0,55,0.00,,SCT,0.00,WeatherDisplay:10.37,2013-06-01 04:40:00,
2013-06-01 00:42:00,75.3,58.0,29.92,SSW,211,0.0,0.0,55,0.00,,SCT,0.00,WeatherDisplay:10.37,2013-06-01 04:42:00,
2013-06-01 00:43:00,75.3,58.0,29.92,SSW,211,0.0,0.0,55,0.00,,SCT,0.00,WeatherDisplay:10.37,2013-06-01 04:43:00,
2013-06-01 00:45:00,75.3,58.0,29.92,SSW,211,0.0,0.0,55,0.00,,SCT,0.00,WeatherDisplay:10.37,2013-06-01 04:45:00,
2013-06-01 00:48:00,75.1,58.3,29.92,SSW,211,0.0,0.8,56,0.00,,SCT,0.00,WeatherDisplay:10.37,2013-06-01 04:48:00,
2013-06-01 00:49:00,74.9,58.1,29.92,SSW,211,3.5,3.5,56,0.00,,SCT,0.00,WeatherDisplay:10.37,2013-06-01 04:49:00,
2013-06-01 00:51:00,74.6,58.4,29.92,SSW,211,2.3,0.0,57,0.00,,SCT,0.00,WeatherDisplay:10.37,2013-06-01 04:51:00,
2013-06-01 00:52:00,74.6,58.4,29.92,SSW,211,0.0,0.0,57,0.00,,SCT,0.00,WeatherDisplay:10.37,2013-06-01 04:52:00,
2013-06-01 00:55:00,74.0,57.8,29.92,SSW,211,0.0,0.0,57,0.00,,SCT,0.00,WeatherDisplay:10.37,2013-06-01 04:55:00,
2013-06-01 00:57:00,73.7,57.5,29.92,SSW,211,2.0,2.0,57,0.00,,SCT,0.00,WeatherDisplay:10.37,2013-06-01 04:57:00,
2013-06-01 00:58:00,73.5,57.3,29.92,SSW,211,2.3,2.3,57,0.00,,SCT,0.00,WeatherDisplay:10.37,2013-06-01 04:58:00,
2013-06-01 00:59:00,73.3,57.1,29.92,SSW,211,2.3,0.0,57,0.00,,SCT,0.00,WeatherDisplay:10.37,2013-06-01 04:59:00,
2013-06-01 01:00:00,73.2,57.1,29.92,SSW,211,0.0,0.0,57,0.00,,SCT,0.00,WeatherDisplay:10.37,2013-06-01 05:00:00,
2013-06-01 01:03:00,72.8,57.2,29.93,WSW,251,4.0,4.0,58,0.00,,SCT,0.00,WeatherDisplay:10.37,2013-06-01 05:03:00,
2013-06-01 01:05:00,72.7,57.1,29.93,SW,234,5.8,5.8,58,0.00,,SCT,0.00,WeatherDisplay:10.37,2013-06-01 05:05:00,
2013-06-01 01:06:00,72.5,56.9,29.92,SW,234,5.8,5.8,58,0.00,,SCT,0.00,WeatherDisplay:10.37,2013-06-01 05:06:00,
2013-06-01 01:08:00,72.5,56.9,29.92,SW,234,2.3,0.0,58,0.00,,SCT,0.00,WeatherDisplay:10.37,2013-06-01 05:08:00,
2013-06-01 01:09:00,72.5,56.9,29.92,SW,234,0.0,0.0,58,0.00,,SCT,0.00,WeatherDisplay:10.37,2013-06-01 05:09:00,
2013-06-01 01:11:00,72.5,56.9,29.92,SW,234,0.0,0.0,58,0.00,,SCT,0.00,WeatherDisplay:10.37,2013-06-01 05:11:00,
2013-06-01 01:13:00,72.5,56.9,29.92,SSW,210,1.0,1.1,58,0.00,,SCT,0.00,WeatherDisplay:10.37,2013-06-01 05:13:00,
2013-06-01 01:14:00,72.5,56.9,29.92,SSW,211,3.5,3.5,58,0.00,,SCT,0.00,WeatherDisplay:10.37,2013-06-01 05:14:00,
2013-06-01 01:15:00,72.5,56.9,29.92,SSW,211,3.5,3.5,58,0.00,,SCT,0.00,WeatherDisplay:10.37,2013-06-01 05:15:00,
2013-06-01 01:18:00,72.7,57.5,29.92,West,259,6.9,6.9,59,0.00,,SCT,0.00,WeatherDisplay:10.37,2013-06-01 05:18:00,
2013-06-01 01:19:00,72.8,57.6,29.92,WSW,256,11.5,11.5,59,0.00,,SCT,0.00,WeatherDisplay:10.37,2013-06-01 05:19:00,
2013-06-01 01:20:00,73.0,57.8,29.92,WSW,257,9.0,9.0,59,0.00,,SCT,0.00,WeatherDisplay:10.37,2013-06-01 05:20:00,
2013-06-01 01:25:00,73.9,58.7,29.92,WSW,254,11.5,11.5,59,0.00,,SCT,0.00,WeatherDisplay:10.37,2013-06-01 05:25:00,
2013-06-01 01:26:00,74.0,58.3,29.92,WSW,244,13.8,13.8,58,0.00,,SCT,0.00,WeatherDisplay:10.37,2013-06-01 05:26:00,
2013-06-01 01:27:00,74.2,58.5,29.92,West,261,10.0,10.0,58,0.00,,SCT,0.00,WeatherDisplay:10.37,2013-06-01 05:27:00,
2013-06-01 01:28:00,74.4,58.7,29.92,SW,217,10.4,10.4,58,0.00,,SCT,0.00,WeatherDisplay:10.37,2013-06-01 05:28:00,
2013-06-01 01:30:00,74.6,58.8,29.92,WSW,258,9.2,9.2,58,0.00,,SCT,0.00,WeatherDisplay:10.37,2013-06-01 05:30:00,
2013-06-01 01:32:00,74.9,59.1,29.92,West,276,12.7,12.7,58,0.00,,SCT,0.00,WeatherDisplay:10.37,2013-06-01 05:32:00,
2013-06-01 01:33:00,74.9,59.1,29.92,WSW,254,11.5,11.5,58,0.00,,SCT,0.00,WeatherDisplay:10.37,2013-06-01 05:33:00,
2013-06-01 01:35:00,75.3,59.5,29.92,WSW,252,11.5,11.5,58,0.00,,SCT,0.00,WeatherDisplay:10.37,2013-06-01 05:35:00,
2013-06-01 01:38:00,75.4,59.6,29.93,SSW,210,10.4,10.4,58,0.00,,SCT,0.00,WeatherDisplay:10.37,2013-06-01 05:38:00,
2013-06-01 01:39:00,75.4,59.6,29.93,SSW,195,6.9,6.9,58,0.00,,SCT,0.00,WeatherDisplay:10.37,2013-06-01 05:39:00,
2013-06-01 01:42:00,75.6,59.3,29.93,WSW,250,9.2,9.2,57,0.00,,SCT,0.00,WeatherDisplay:10.37,2013-06-01 05:42:00,
2013-06-01 01:43:00,75.6,59.3,29.93,WSW,249,5.8,5.8,57,0.00,,SCT,0.00,WeatherDisplay:10.37,2013-06-01 05:43:00,
2013-06-01 01:46:00,75.6,59.8,29.93,SW,236,6.9,6.9,58,0.00,,SCT,0.00,WeatherDisplay:10.37,2013-06-01 05:46:00,
2013-06-01 01:48:00,75.8,59.5,29.93,WSW,248,5.0,5.0,57,0.00,,SCT,0.00,WeatherDisplay:10.37,2013-06-01 05:48:00,
2013-06-01 01:49:00,75.8,59.5,29.93,WSW,248,4.6,4.6,57,0.00,,SCT,0.00,WeatherDisplay:10.37,2013-06-01 05:49:00,
2013-06-01 01:50:00,75.8,59.5,29.93,WSW,248,4.6,4.6,57,0.00,,SCT,0.00,WeatherDisplay:10.37,2013-06-01 05:50:00,
2013-06-01 01:54:00,75.6,59.3,29.93,WSW,252,3.5,3.5,57,0.00,,SCT,0.00,WeatherDisplay:10.37,2013-06-01 05:54:00,
2013-06-01 01:55:00,75.6,59.8,29.93,WSW,252,3.5,3.5,58,0.00,,SCT,0.00,WeatherDisplay:10.37,2013-06-01 05:55:00,
2013-06-01 01:57:00,75.6,59.8,29.93,WSW,258,5.8,5.8,58,0.00,,SCT,0.00,WeatherDisplay:10.37,2013-06-01 05:57:00,
2013-06-01 01:59:00,75.6,59.8,29.93,WSW,258,3.5,3.5,58,0.00,,SCT,0.00,WeatherDisplay:10.37,2013-06-01 05:59:00,
2013-06-01 02:01:00,75.4,59.6,29.93,WSW,258,0.0,0.1,58,0.00,,SCT,0.00,WeatherDisplay:10.37,2013-06-01 06:01:00,
2013-06-01 02:03:00,75.4,59.6,29.93,WSW,254,1.1,2.2,58,0.00,,SCT,0.00,WeatherDisplay:10.37,2013-06-01 06:03:00,
2013-06-01 02:06:00,75.3,59.5,29.93,WSW,238,8.1,8.1,58,0.00,,SCT,0.00,WeatherDisplay:10.37,2013-06-01 06:06:00,
2013-06-01 02:07:00,75.3,59.5,29.93,WSW,238,3.5,3.5,58,0.00,,SCT,0.00,WeatherDisplay:10.37,2013-06-01 06:07:00,
2013-06-01 02:10:00,75.3,59.5,29.93,WSW,238,3.5,3.5,58,0.00,,SCT,0.00,WeatherDisplay:10.37,2013-06-01 06:10:00,
2013-06-01 02:12:00,75.1,59.3,29.93,WSW,250,3.5,3.5,58,0.00,,SCT,0.00,WeatherDisplay:10.37,2013-06-01 06:12:00,
2013-06-01 02:15:00,75.1,59.3,29.93,WSW,246,2.3,2.3,58,0.00,,SCT,0.00,WeatherDisplay:10.37,2013-06-01 06:15:00,
2013-06-01 02:16:00,75.1,59.3,29.93,WSW,246,4.6,4.6,58,0.00,,SCT,0.00,WeatherDisplay:10.37,2013-06-01 06:16:00,
2013-06-01 02:17:00,75.1,59.3,29.93,SW,233,3.5,3.5,58,0.00,,SCT,0.00,WeatherDisplay:10.37,2013-06-01 06:17:00,
2013-06-01 02:18:00,75.1,59.3,29.93,WSW,242,5.0,5.0,58,0.00,,SCT,0.00,WeatherDisplay:10.37,2013-06-01 06:18:00,
2013-06-01 02:20:00,75.1,59.8,29.93,WSW,246,5.8,5.8,59,0.00,,SCT,0.00,WeatherDisplay:10.37,2013-06-01 06:20:00,
2013-06-01 02:21:00,75.1,59.8,29.93,WSW,248,5.8,5.8,59,0.00,,SCT,0.00,WeatherDisplay:10.37,2013-06-01 06:21:00,
2013-06-01 02:25:00,75.1,59.8,29.93,WSW,248,6.9,6.9,59,0.00,,SCT,0.00,WeatherDisplay:10.37,2013-06-01 06:25:00,
2013-06-01 02:26:00,75.1,59.8,29.93,WSW,254,6.9,6.9,59,0.00,,SCT,0.00,WeatherDisplay:10.37,2013-06-01 06:26:00,
2013-06-01 02:29:00,75.1,59.8,29.93,WSW,239,5.8,5.8,59,0.00,,SCT,0.00,WeatherDisplay:10.37,2013-06-01 06:29:00,
2013-06-01 02:31:00,75.1,59.8,29.93,WSW,251,10.4,10.4,59,0.00,,SCT,0.00,WeatherDisplay:10.37,2013-06-01 06:31:00,
2013-06-01 02:32:00,75.1,59.8,29.93,SW,234,6.9,6.9,59,0.00,,SCT,0.00,WeatherDisplay:10.37,2013-06-01 06:32:00,
2013-06-01 02:34:00,75.3,60.0,29.93,SW,235,5.8,5.8,59,0.00,,SCT,0.00,WeatherDisplay:10.37,2013-06-01 06:34:00,
2013-06-01 02:36:00,75.3,60.0,29.93,WSW,249,6.9,6.9,59,0.00,,SCT,0.00,WeatherDisplay:10.37,2013-06-01 06:36:00,
2013-06-01 02:38:00,75.3,60.0,29.93,WSW,248,9.0,9.0,59,0.00,,SCT,0.00,WeatherDisplay:10.37,2013-06-01 06:38:00,
2013-06-01 02:39:00,75.4,60.1,29.93,WSW,249,10.4,10.4,59,0.00,,SCT,0.00,WeatherDisplay:10.37,2013-06-01 06:39:00,
2013-06-01 02:42:00,75.4,60.1,29.93,SW,225,5.8,5.8,59,0.00,,SCT,0.00,WeatherDisplay:10.37,2013-06-01 06:42:00,
2013-06-01 02:44:00,75.4,60.1,29.93,SW,228,5.0,5.0,59,0.00,,SCT,0.00,WeatherDisplay:10.37,2013-06-01 06:44:00,
2013-06-01 02:47:00,75.3,60.0,29.93,SW,229,3.5,3.5,59,0.00,,SCT,0.00,WeatherDisplay:10.37,2013-06-01 06:47:00,
2013-06-01 02:49:00,75.3,60.0,29.93,WSW,254,11.0,11.0,59,0.00,,SCT,0.00,WeatherDisplay:10.37,2013-06-01 06:49:00,
2013-06-01 02:52:00,75.1,59.8,29.93,West,266,4.6,4.6,59,0.00,,SCT,0.00,WeatherDisplay:10.37,2013-06-01 06:52:00,
2013-06-01 02:54:00,74.9,59.6,29.93,WSW,255,4.6,4.6,59,0.00,,SCT,0.00,WeatherDisplay:10.37,2013-06-01 06:54:00,
2013-06-01 02:55:00,74.9,59.6,29.93,WSW,255,5.8,6.7,59,0.00,,SCT,0.00,WeatherDisplay:10.37,2013-06-01 06:55:00,
2013-06-01 02:56:00,74.9,59.6,29.93,WSW,250,10.4,10.4,59,0.00,,SCT,0.00,WeatherDisplay:10.37,2013-06-01 06:56:00,
2013-06-01 02:58:00,74.7,59.4,29.93,West,263,5.8,5.8,59,0.00,,SCT,0.00,WeatherDisplay:10.37,2013-06-01 06:58:00,
2013-06-01 03:00:00,74.7,59.4,29.93,WSW,239,4.6,4.6,59,0.00,,SCT,0.00,WeatherDisplay:10.37,2013-06-01 07:00:00,
2013-06-01 03:03:00,74.6,59.8,29.93,WSW,245,3.5,3.5,60,0.00,,SCT,0.00,WeatherDisplay:10.37,2013-06-01 07:03:00,
2013-06-01 03:04:00,74.4,59.6,29.93,WSW,245,5.8,5.8,60,0.00,,SCT,0.00,WeatherDisplay:10.37,2013-06-01 07:04:00,
2013-06-01 03:08:00,74.2,59.4,29.93,WSW,245,0.0,0.0,60,0.00,,SCT,0.00,WeatherDisplay:10.37,2013-06-01 07:08:00,
2013-06-01 03:09:00,74.0,59.2,29.93,WSW,245,0.0,0.0,60,0.00,,SCT,0.00,WeatherDisplay:10.37,2013-06-01 07:09:00,
2013-06-01 03:11:00,74.0,59.2,29.93,WSW,245,0.0,0.0,60,0.00,,SCT,0.00,WeatherDisplay:10.37,2013-06-01 07:11:00,
2013-06-01 03:13:00,73.9,59.1,29.93,WSW,245,0.0,0.0,60,0.00,,SCT,0.00,WeatherDisplay:10.37,2013-06-01 07:13:00,
2013-06-01 03:14:00,73.7,58.9,29.93,WSW,245,0.0,0.0,60,0.00,,SCT,0.00,WeatherDisplay:10.37,2013-06-01 07:14:00,
2013-06-01 03:16:00,73.5,58.8,29.93,WSW,245,0.0,0.0,60,0.00,,SCT,0.00,WeatherDisplay:10.37,2013-06-01 07:16:00,
2013-06-01 03:18:00,73.3,58.6,29.93,WSW,245,0.0,0.0,60,0.00,,SCT,0.00,WeatherDisplay:10.37,2013-06-01 07:18:00,
2013-06-01 03:19:00,73.3,58.6,29.93,WSW,245,0.0,0.0,60,0.00,,SCT,0.00,WeatherDisplay:10.37,2013-06-01 07:19:00,
2013-06-01 03:20:00,73.2,58.9,29.93,WSW,245,0.0,0.0,61,0.00,,SCT,0.00,WeatherDisplay:10.37,2013-06-01 07:20:00,
2013-06-01 03:21:00,73.2,58.9,29.93,WSW,245,0.0,0.0,61,0.00,,SCT,0.00,WeatherDisplay:10.37,2013-06-01 07:21:00,
2013-06-01 03:23:00,73.0,58.3,29.93,WSW,245,0.0,0.0,60,0.00,,SCT,0.00,WeatherDisplay:10.37,2013-06-01 07:23:00,
2013-06-01 03:24:00,73.0,58.8,29.93,WSW,245,0.0,0.0,61,0.00,,SCT,0.00,WeatherDisplay:10.37,2013-06-01 07:24:00,
2013-06-01 03:25:00,72.8,58.1,29.93,WSW,245,0.0,0.0,60,0.00,,SCT,0.00,WeatherDisplay:10.37,2013-06-01 07:25:00,
2013-06-01 03:26:00,72.8,58.1,29.93,WSW,245,0.0,0.0,60,0.00,,SCT,0.00,WeatherDisplay:10.37,2013-06-01 07:26:00,
2013-06-01 03:29:00,72.7,58.5,29.93,WSW,245,0.0,0.0,61,0.00,,SCT,0.00,WeatherDisplay:10.37,2013-06-01 07:29:00,
2013-06-01 03:30:00,72.5,58.3,29.93,WSW,245,0.0,0.0,61,0.00,,SCT,0.00,WeatherDisplay:10.37,2013-06-01 07:30:00,
2013-06-01 03:31:00,72.5,58.3,29.93,WSW,245,0.0,0.0,61,0.00,,SCT,0.00,WeatherDisplay:10.37,2013-06-01 07:31:00,
2013-06-01 03:35:00,72.0,58.3,29.93,WSW,245,0.0,0.0,62,0.00,,SCT,0.00,WeatherDisplay:10.37,2013-06-01 07:35:00,
2013-06-01 03:36:00,72.0,57.8,29.93,WSW,245,0.0,0.0,61,0.00,,SCT,0.00,WeatherDisplay:10.37,2013-06-01 07:36:00,
2013-06-01 03:37:00,71.8,57.6,29.93,WSW,245,0.0,0.0,61,0.00,,SCT,0.00,WeatherDisplay:10.37,2013-06-01 07:37:00,
2013-06-01 03:40:00,71.5,57.8,29.93,WSW,245,0.0,0.0,62,0.00,,SCT,0.00,WeatherDisplay:10.37,2013-06-01 07:40:00,
2013-06-01 03:42:00,71.3,57.6,29.93,WSW,245,0.0,0.0,62,0.00,,SCT,0.00,WeatherDisplay:10.37,2013-06-01 07:42:00,
2013-06-01 03:43:00,71.1,57.4,29.93,WSW,245,0.0,0.0,62,0.00,,SCT,0.00,WeatherDisplay:10.37,2013-06-01 07:43:00,
2013-06-01 03:44:00,71.1,57.4,29.93,WSW,245,0.0,0.0,62,0.00,,SCT,0.00,WeatherDisplay:10.37,2013-06-01 07:44:00,
2013-06-01 03:46:00,70.8,57.1,29.93,WSW,245,0.0,0.0,62,0.00,,SCT,0.00,WeatherDisplay:10.37,2013-06-01 07:46:00,
2013-06-01 03:48:00,70.6,56.9,29.93,WSW,245,0.0,0.0,62,0.00,,SCT,0.00,WeatherDisplay:10.37,2013-06-01 07:48:00,
2013-06-01 03:50:00,70.4,56.8,29.93,WSW,245,0.0,0.0,62,0.00,,SCT,0.00,WeatherDisplay:10.37,2013-06-01 07:50:00,
2013-06-01 03:51:00,70.4,56.8,29.93,WSW,245,0.0,0.0,62,0.00,,SCT,0.00,WeatherDisplay:10.37,2013-06-01 07:51:00,
2013-06-01 03:52:00,70.4,56.8,29.93,WSW,245,0.0,0.0,62,0.00,,SCT,0.00,WeatherDisplay:10.37,2013-06-01 07:52:00,
2013-06-01 03:53:00,70.3,56.7,29.93,WSW,245,0.0,0.0,62,0.00,,SCT,0.00,WeatherDisplay:10.37,2013-06-01 07:53:00,
2013-06-01 03:56:00,70.1,56.9,29.93,WSW,245,0.0,0.0,63,0.00,,SCT,0.00,WeatherDisplay:10.37,2013-06-01 07:56:00,
2013-06-01 03:59:00,69.9,56.7,29.93,WSW,245,0.0,0.0,63,0.00,,SCT,0.00,WeatherDisplay:10.37,2013-06-01 07:59:00,
2013-06-01 04:00:00,69.9,56.7,29.93,WSW,245,0.0,0.0,63,0.00,,SCT,0.00,WeatherDisplay:10.37,2013-06-01 08:00:00,
2013-06-01 04:03:00,69.6,56.4,29.93,WSW,245,0.0,0.0,63,0.00,,SCT,0.00,WeatherDisplay:10.37,2013-06-01 08:03:00,
2013-06-01 04:04:00,69.6,56.4,29.93,WSW,245,0.0,0.0,63,0.00,,SCT,0.00,WeatherDisplay:10.37,2013-06-01 08:04:00,
2013-06-01 04:05:00,69.6,56.4,29.93,WSW,245,0.0,0.0,63,0.00,,SCT,0.00,WeatherDisplay:10.37,2013-06-01 08:05:00,
2013-06-01 04:07:00,69.4,56.7,29.93,WSW,245,0.0,0.0,64,0.00,,SCT,0.00,WeatherDisplay:10.37,2013-06-01 08:07:00,
2013-06-01 04:10:00,69.3,56.6,29.93,WSW,245,0.0,0.0,64,0.00,,SCT,0.00,WeatherDisplay:10.37,2013-06-01 08:10:00,
2013-06-01 04:13:00,69.1,56.4,29.93,WSW,245,0.0,0.0,64,0.00,,SCT,0.00,WeatherDisplay:10.37,2013-06-01 08:13:00,
2013-06-01 04:14:00,68.9,56.2,29.93,WSW,245,0.0,0.0,64,0.00,,SCT,0.00,WeatherDisplay:10.37,2013-06-01 08:14:00,
2013-06-01 04:17:00,68.8,56.6,29.93,WSW,245,0.0,0.0,65,0.00,,SCT,0.00,WeatherDisplay:10.37,2013-06-01 08:17:00,
2013-06-01 04:18:00,68.8,56.6,29.93,WSW,245,0.0,0.0,65,0.00,,SCT,0.00,WeatherDisplay:10.37,2013-06-01 08:18:00,
2013-06-01 04:22:00,68.4,56.2,29.93,WSW,245,0.0,0.0,65,0.00,,SCT,0.00,WeatherDisplay:10.37,2013-06-01 08:22:00,
2013-06-01 04:23:00,68.3,56.1,29.93,WSW,245,0.0,0.0,65,0.00,,SCT,0.00,WeatherDisplay:10.37,2013-06-01 08:23:00,
2013-06-01 04:25:00,68.1,56.3,29.93,WSW,245,0.0,0.0,66,0.00,,SCT,0.00,WeatherDisplay:10.37,2013-06-01 08:25:00,
2013-06-01 04:26:00,67.9,56.1,29.93,WSW,245,0.0,0.0,66,0.00,,SCT,0.00,WeatherDisplay:10.37,2013-06-01 08:26:00,
2013-06-01 04:27:00,67.9,56.1,29.93,WSW,245,0.0,0.0,66,0.00,,SCT,0.00,WeatherDisplay:10.37,2013-06-01 08:27:00,
2013-06-01 04:29:00,67.6,55.8,29.93,WSW,245,0.0,0.0,66,0.00,,SCT,0.00,WeatherDisplay:10.37,2013-06-01 08:29:00,
2013-06-01 04:32:00,67.3,55.5,29.93,WSW,245,0.0,0.0,66,0.00,,SCT,0.00,WeatherDisplay:10.37,2013-06-01 08:32:00,
2013-06-01 04:34:00,67.1,55.8,29.93,WSW,245,0.0,0.0,67,0.00,,SCT,0.00,WeatherDisplay:10.37,2013-06-01 08:34:00,
2013-06-01 04:35:00,67.1,55.8,29.93,WSW,245,0.0,0.0,67,0.00,,SCT,0.00,WeatherDisplay:10.37,2013-06-01 08:35:00,
2013-06-01 04:36:00,66.9,55.6,29.93,WSW,245,0.0,0.0,67,0.00,,SCT,0.00,WeatherDisplay:10.37,2013-06-01 08:36:00,
2013-06-01 04:37:00,66.9,55.6,29.93,WSW,245,0.0,0.0,67,0.00,,SCT,0.00,WeatherDisplay:10.37,2013-06-01 08:37:00,
2013-06-01 04:38:00,66.8,55.5,29.93,WSW,245,0.0,0.0,67,0.00,,SCT,0.00,WeatherDisplay:10.37,2013-06-01 08:38:00,
2013-06-01 04:42:00,66.6,55.3,29.93,WSW,245,0.0,0.0,67,0.00,,SCT,0.00,WeatherDisplay:10.37,2013-06-01 08:42:00,
2013-06-01 04:44:00,66.4,55.5,29.93,WSW,245,0.0,0.0,68,0.00,,SCT,0.00,WeatherDisplay:10.37,2013-06-01 08:44:00,
2013-06-01 04:45:00,66.4,55.5,29.93,WSW,245,0.0,0.0,68,0.00,,SCT,0.00,WeatherDisplay:10.37,2013-06-01 08:45:00,
2013-06-01 04:47:00,66.3,55.4,29.93,WSW,245,0.0,0.0,68,0.00,,SCT,0.00,WeatherDisplay:10.37,2013-06-01 08:47:00,
2013-06-01 04:48:00,66.3,55.4,29.93,WSW,245,0.0,0.0,68,0.00,,SCT,0.00,WeatherDisplay:10.37,2013-06-01 08:48:00,
2013-06-01 04:49:00,66.3,55.4,29.94,WSW,245,0.0,0.0,68,0.00,,SCT,0.00,WeatherDisplay:10.37,2013-06-01 08:49:00,
2013-06-01 04:51:00,66.3,55.4,29.94,WSW,245,0.0,0.0,68,0.00,,SCT,0.00,WeatherDisplay:10.37,2013-06-01 08:51:00,
2013-06-01 04:52:00,66.1,55.2,29.93,WSW,245,0.0,0.0,68,0.00,,SCT,0.00,WeatherDisplay:10.37,2013-06-01 08:52:00,
2013-06-01 04:55:00,66.0,55.5,29.93,WSW,245,0.0,0.0,69,0.00,,SCT,0.00,WeatherDisplay:10.37,2013-06-01 08:55:00,
2013-06-01 04:57:00,66.0,55.5,29.93,WSW,245,0.0,0.0,69,0.00,,SCT,0.00,WeatherDisplay:10.37,2013-06-01 08:57:00,
2013-06-01 04:58:00,65.8,55.3,29.93,WSW,245,0.0,0.0,69,0.00,,SCT,0.00,WeatherDisplay:10.37,2013-06-01 08:58:00,
2013-06-01 05:00:00,65.8,54.9,29.93,WSW,245,0.0,0.0,68,0.00,,SCT,0.00,WeatherDisplay:10.37,2013-06-01 09:00:00,
2013-06-01 05:02:00,65.6,54.8,29.93,WSW,245,0.0,0.0,68,0.00,,SCT,0.00,WeatherDisplay:10.37,2013-06-01 09:02:00,
2013-06-01 05:03:00,65.6,54.8,29.93,WSW,245,0.0,0.0,68,0.00,,SCT,0.00,WeatherDisplay:10.37,2013-06-01 09:03:00,
2013-06-01 05:05:00,65.5,55.1,29.93,WSW,245,0.0,0.0,69,0.00,,SCT,0.00,WeatherDisplay:10.37,2013-06-01 09:05:00,
2013-06-01 05:06:00,65.5,55.1,29.93,WSW,245,0.0,0.0,69,0.00,,SCT,0.00,WeatherDisplay:10.37,2013-06-01 09:06:00,
2013-06-01 05:07:00,65.5,55.1,29.93,WSW,245,0.0,0.0,69,0.00,,SCT,0.00,WeatherDisplay:10.37,2013-06-01 09:07:00,
2013-06-01 05:10:00,65.3,54.9,29.93,WSW,245,0.0,0.0,69,0.00,,SCT,0.00,WeatherDisplay:10.37,2013-06-01 09:10:00,
2013-06-01 05:11:00,65.2,54.8,29.93,WSW,245,0.0,0.0,69,0.00,,SCT,0.00,WeatherDisplay:10.37,2013-06-01 09:11:00,
2013-06-01 05:12:00,65.2,54.8,29.93,WSW,245,0.0,0.0,69,0.00,,SCT,0.00,WeatherDisplay:10.37,2013-06-01 09:12:00,
2013-06-01 05:16:00,65.0,54.6,29.93,WSW,245,0.0,0.0,69,0.00,,SCT,0.00,WeatherDisplay:10.37,2013-06-01 09:16:00,
2013-06-01 05:18:00,64.8,54.4,29.93,WSW,245,0.0,0.0,69,0.00,,SCT,0.00,WeatherDisplay:10.37,2013-06-01 09:18:00,
2013-06-01 05:19:00,64.8,54.4,29.93,WSW,245,0.0,0.0,69,0.00,,SCT,0.00,WeatherDisplay:10.37,2013-06-01 09:19:00,
2013-06-01 05:20:00,64.7,54.3,29.93,WSW,245,0.0,0.0,69,0.00,,SCT,0.00,WeatherDisplay:10.37,2013-06-01 09:20:00,
2013-06-01 05:25:00,64.5,54.5,29.93,WSW,245,0.0,0.0,70,0.00,,SCT,0.00,WeatherDisplay:10.37,2013-06-01 09:25:00,
2013-06-01 05:26:00,64.5,54.5,29.93,WSW,245,0.0,0.0,70,0.00,,SCT,0.00,WeatherDisplay:10.37,2013-06-01 09:26:00,
2013-06-01 05:27:00,64.5,54.5,29.93,WSW,245,0.0,0.0,70,0.00,,SCT,0.00,WeatherDisplay:10.37,2013-06-01 09:27:00,
2013-06-01 05:28:00,64.3,54.7,29.93,WSW,245,0.0,0.0,71,0.00,,SCT,0.00,WeatherDisplay:10.37,2013-06-01 09:28:00,
2013-06-01 05:29:00,64.3,54.7,29.93,WSW,245,0.0,0.0,71,0.00,,SCT,0.00,WeatherDisplay:10.37,2013-06-01 09:29:00,
2013-06-01 05:34:00,64.0,54.4,29.93,WSW,245,0.0,0.0,71,0.00,,SCT,0.00,WeatherDisplay:10.37,2013-06-01 09:34:00,
2013-06-01 05:35:00,64.0,54.8,29.93,WSW,245,0.0,0.0,72,0.00,,SCT,0.00,WeatherDisplay:10.37,2013-06-01 09:35:00,
2013-06-01 05:38:00,63.9,54.3,29.93,WSW,245,0.0,0.0,71,0.00,,SCT,0.00,WeatherDisplay:10.37,2013-06-01 09:38:00,
2013-06-01 05:39:00,63.9,54.3,29.93,WSW,245,0.0,0.0,71,0.00,,SCT,0.00,WeatherDisplay:10.37,2013-06-01 09:39:00,
2013-06-01 05:40:00,63.7,54.1,29.93,WSW,245,0.0,0.0,71,0.00,,SCT,0.00,WeatherDisplay:10.37,2013-06-01 09:40:00,
2013-06-01 05:44:00,63.5,53.9,29.93,WSW,245,0.0,0.0,71,0.00,,SCT,0.00,WeatherDisplay:10.37,2013-06-01 09:44:00,
2013-06-01 05:45:00,63.5,53.9,29.93,WSW,245,0.0,0.0,71,0.00,,SCT,0.00,WeatherDisplay:10.37,2013-06-01 09:45:00,
2013-06-01 05:46:00,63.4,53.8,29.93,WSW,245,0.0,0.0,71,0.00,,SCT,0.00,WeatherDisplay:10.37,2013-06-01 09:46:00,
2013-06-01 05:47:00,63.4,53.8,29.93,WSW,245,0.0,0.0,71,0.00,,SCT,0.00,WeatherDisplay:10.37,2013-06-01 09:47:00,
2013-06-01 05:50:00,63.2,53.6,29.93,WSW,245,0.0,0.0,71,0.00,,SCT,0.00,WeatherDisplay:10.37,2013-06-01 09:50:00,
2013-06-01 05:51:00,63.2,53.6,29.93,WSW,245,0.0,0.0,71,0.00,,SCT,0.00,WeatherDisplay:10.37,2013-06-01 09:51:00,
2013-06-01 05:55:00,63.1,53.9,29.93,WSW,245,0.0,0.0,72,0.00,,SCT,0.00,WeatherDisplay:10.37,2013-06-01 09:55:00,
2013-06-01 05:57:00,63.1,53.9,29.93,WSW,245,0.0,0.0,72,0.00,,SCT,0.00,WeatherDisplay:10.37,2013-06-01 09:57:00,
2013-06-01 05:58:00,62.9,53.7,29.93,WSW,245,0.0,0.0,72,0.00,,SCT,0.00,WeatherDisplay:10.37,2013-06-01 09:58:00,
2013-06-01 06:01:00,62.9,53.7,29.93,WSW,245,0.0,0.0,72,0.00,CLR,SCT,0.00,WeatherDisplay:10.37,2013-06-01 10:01:00,
2013-06-01 06:02:00,62.9,54.1,29.93,WSW,245,0.0,0.0,73,0.00,CLR,SCT,0.00,WeatherDisplay:10.37,2013-06-01 10:02:00,
2013-06-01 06:03:00,62.9,54.1,29.93,WSW,245,0.0,0.0,73,0.00,CLR,SCT,0.00,WeatherDisplay:10.37,2013-06-01 10:03:00,
2013-06-01 06:04:00,62.7,53.9,29.93,WSW,245,0.0,0.0,73,0.00,CLR,SCT,0.00,WeatherDisplay:10.37,2013-06-01 10:04:00,
2013-06-01 06:05:00,62.7,53.5,29.93,WSW,245,0.0,0.0,72,0.00,CLR,SCT,0.00,WeatherDisplay:10.37,2013-06-01 10:05:00,
2013-06-01 06:09:00,62.6,53.4,29.93,WSW,245,0.0,0.0,72,0.00,CLR,SCT,0.00,WeatherDisplay:10.37,2013-06-01 10:09:00,
2013-06-01 06:10:00,62.6,53.8,29.93,WSW,245,0.0,0.0,73,0.00,CLR,SCT,0.00,WeatherDisplay:10.37,2013-06-01 10:10:00,
2013-06-01 06:11:00,62.6,53.8,29.93,WSW,245,0.0,0.0,73,0.00,CLR,SCT,0.00,WeatherDisplay:10.37,2013-06-01 10:11:00,
2013-06-01 06:13:00,62.6,53.8,29.93,WSW,245,0.0,0.0,73,0.00,CLR,SCT,0.00,WeatherDisplay:10.37,2013-06-01 10:13:00,
2013-06-01 06:14:00,62.6,53.8,29.93,WSW,245,0.0,0.0,73,0.00,CLR,SCT,0.00,WeatherDisplay:10.37,2013-06-01 10:14:00,
2013-06-01 06:18:00,62.4,54.0,29.93,WSW,245,0.0,0.0,74,0.00,CLR,SCT,0.00,WeatherDisplay:10.37,2013-06-01 10:18:00,
2013-06-01 06:19:00,62.4,53.6,29.93,WSW,245,0.0,0.0,73,0.00,CLR,SCT,0.00,WeatherDisplay:10.37,2013-06-01 10:19:00,
2013-06-01 06:21:00,62.4,54.0,29.93,WSW,245,0.0,0.0,74,0.00,CLR,SCT,0.00,WeatherDisplay:10.37,2013-06-01 10:21:00,
2013-06-01 06:23:00,62.3,53.5,29.93,WSW,245,0.0,0.0,73,0.00,CLR,SCT,0.00,WeatherDisplay:10.37,2013-06-01 10:23:00,
2013-06-01 06:24:00,62.3,53.5,29.93,WSW,245,0.0,0.0,73,0.00,CLR,SCT,0.00,WeatherDisplay:10.37,2013-06-01 10:24:00,
2013-06-01 06:26:00,62.3,53.5,29.93,WSW,245,0.0,0.0,73,0.00,CLR,SCT,0.00,WeatherDisplay:10.37,2013-06-01 10:26:00,
2013-06-01 06:27:00,62.1,53.3,29.93,WSW,245,0.0,0.0,73,0.00,CLR,SCT,0.00,WeatherDisplay:10.37,2013-06-01 10:27:00,
2013-06-01 06:30:00,62.1,53.7,29.93,WSW,245,0.0,0.0,74,0.00,CLR,SCT,0.00,WeatherDisplay:10.37,2013-06-01 10:30:00,
2013-06-01 06:31:00,62.1,53.3,29.93,WSW,245,0.0,0.0,73,0.00,CLR,SCT,0.00,WeatherDisplay:10.37,2013-06-01 10:31:00,
2013-06-01 06:32:00,62.1,53.3,29.93,WSW,245,0.0,0.0,73,0.00,CLR,SCT,0.00,WeatherDisplay:10.37,2013-06-01 10:32:00,
2013-06-01 06:35:00,62.0,53.6,29.93,WSW,245,0.0,0.0,74,0.00,CLR,SCT,0.00,WeatherDisplay:10.37,2013-06-01 10:35:00,
2013-06-01 06:36:00,62.0,53.6,29.93,WSW,245,0.0,0.0,74,0.00,CLR,SCT,0.00,WeatherDisplay:10.37,2013-06-01 10:36:00,
2013-06-01 06:37:00,62.0,54.0,29.93,WSW,245,0.0,0.0,75,0.00,CLR,SCT,0.00,WeatherDisplay:10.37,2013-06-01 10:37:00,
2013-06-01 06:39:00,61.8,53.4,29.93,WSW,245,0.0,0.0,74,0.00,CLR,SCT,0.00,WeatherDisplay:10.37,2013-06-01 10:39:00,
2013-06-01 06:40:00,61.8,53.4,29.93,WSW,245,0.0,0.0,74,0.00,CLR,SCT,0.00,WeatherDisplay:10.37,2013-06-01 10:40:00,
2013-06-01 06:42:00,61.8,53.4,29.93,WSW,245,0.0,0.0,74,0.00,CLR,SCT,0.00,WeatherDisplay:10.37,2013-06-01 10:42:00,
2013-06-01 06:44:00,61.8,53.8,29.93,WSW,245,0.0,0.0,75,0.00,CLR,SCT,0.00,WeatherDisplay:10.37,2013-06-01 10:44:00,
2013-06-01 06:45:00,61.8,53.8,29.93,WSW,245,0.0,0.0,75,0.00,CLR,SCT,0.00,WeatherDisplay:10.37,2013-06-01 10:45:00,
2013-06-01 06:46:00,61.8,53.8,29.93,WSW,245,0.0,0.0,75,0.00,CLR,SCT,0.00,WeatherDisplay:10.37,2013-06-01 10:46:00,
2013-06-01 06:47:00,61.8,53.8,29.93,WSW,245,0.0,0.0,75,0.00,CLR,SCT,0.00,WeatherDisplay:10.37,2013-06-01 10:47:00,
2013-06-01 06:48:00,61.8,53.8,29.93,WSW,245,0.0,0.0,75,0.00,CLR,SCT,0.00,WeatherDisplay:10.37,2013-06-01 10:48:00,
2013-06-01 06:52:00,61.8,53.8,29.93,WSW,245,0.0,0.0,75,0.00,CLR,SCT,0.00,WeatherDisplay:10.37,2013-06-01 10:52:00,
2013-06-01 06:53:00,61.8,54.2,29.93,WSW,245,0.0,0.0,76,0.00,CLR,SCT,0.00,WeatherDisplay:10.37,2013-06-01 10:53:00,
2013-06-01 06:54:00,61.8,54.2,29.93,WSW,245,0.0,0.0,76,0.00,CLR,SCT,0.00,WeatherDisplay:10.37,2013-06-01 10:54:00,
2013-06-01 06:56:00,62.0,54.3,29.93,WSW,245,0.0,0.0,76,0.00,CLR,SCT,0.00,WeatherDisplay:10.37,2013-06-01 10:56:00,
2013-06-01 06:59:00,62.1,54.4,29.93,SW,227,0.0,0.0,76,0.00,CLR,SCT,0.00,WeatherDisplay:10.37,2013-06-01 10:59:00,
2013-06-01 07:00:00,62.1,54.4,29.93,SW,227,0.0,0.0,76,0.00,CLR,SCT,0.00,WeatherDisplay:10.37,2013-06-01 11:00:00,
2013-06-01 07:01:00,62.1,54.4,29.93,SW,227,0.0,0.0,76,0.00,CLR,SCT,0.00,WeatherDisplay:10.37,2013-06-01 11:01:00,
2013-06-01 07:02:00,62.3,54.6,29.93,SW,227,0.0,0.0,76,0.00,CLR,SCT,0.00,WeatherDisplay:10.37,2013-06-01 11:02:00,
2013-06-01 07:04:00,62.3,54.6,29.93,SW,227,0.0,0.0,76,0.00,CLR,SCT,0.00,WeatherDisplay:10.37,2013-06-01 11:04:00,
2013-06-01 07:09:00,62.6,54.9,29.94,SW,227,0.0,0.0,76,0.00,CLR,SCT,0.00,WeatherDisplay:10.37,2013-06-01 11:09:00,
2013-06-01 07:10:00,62.6,54.9,29.93,SW,221,0.0,0.0,76,0.00,CLR,SCT,0.00,WeatherDisplay:10.37,2013-06-01 11:10:00,
2013-06-01 07:14:00,62.9,55.2,29.93,SW,225,0.0,0.0,76,0.00,CLR,SCT,0.00,WeatherDisplay:10.37,2013-06-01 11:14:00,
2013-06-01 07:15:00,63.1,55.8,29.93,SW,225,0.0,0.0,77,0.00,CLR,SCT,0.00,WeatherDisplay:10.37,2013-06-01 11:15:00,
2013-06-01 07:17:00,63.2,55.9,29.93,SW,225,0.0,0.0,77,0.00,CLR,SCT,0.00,WeatherDisplay:10.37,2013-06-01 11:17:00,
2013-06-01 07:19:00,63.2,55.9,29.93,SW,225,0.0,0.0,77,0.00,CLR,SCT,0.00,WeatherDisplay:10.37,2013-06-01 11:19:00,
2013-06-01 07:21:00,63.4,56.1,29.93,SW,225,0.0,0.0,77,0.00,CLR,SCT,0.00,WeatherDisplay:10.37,2013-06-01 11:21:00,
2013-06-01 07:23:00,63.5,56.2,29.93,SSE,163,0.0,0.0,77,0.00,CLR,SCT,0.00,WeatherDisplay:10.37,2013-06-01 11:23:00,
2013-06-01 07:25:00,63.7,56.4,29.93,SSE,163,0.0,0.0,77,0.00,CLR,SCT,0.00,WeatherDisplay:10.37,2013-06-01 11:25:00,
2013-06-01 07:26:00,63.9,56.5,29.93,SSE,163,0.0,0.0,77,0.00,CLR,SCT,0.00,WeatherDisplay:10.37,2013-06-01 11:26:00,
2013-06-01 07:28:00,64.0,56.6,29.93,SSE,163,0.0,0.0,77,0.00,CLR,SCT,0.00,WeatherDisplay:10.37,2013-06-01 11:28:00,
2013-06-01 07:29:00,64.0,56.6,29.93,SSE,163,0.0,0.0,77,0.00,CLR,SCT,0.00,WeatherDisplay:10.37,2013-06-01 11:29:00,
2013-06-01 07:31:00,64.2,56.8,29.93,SSE,163,0.0,0.0,77,0.00,CLR,SCT,0.00,WeatherDisplay:10.37,2013-06-01 11:31:00,
2013-06-01 07:33:00,64.3,57.3,29.93,SSE,163,0.0,0.0,78,0.00,CLR,SCT,0.00,WeatherDisplay:10.37,2013-06-01 11:33:00,
2013-06-01 07:34:00,64.5,57.1,29.93,SSE,163,0.0,0.0,77,0.00,CLR,SCT,0.00,WeatherDisplay:10.37,2013-06-01 11:34:00,
2013-06-01 07:38:00,64.8,57.4,29.93,SSE,163,0.0,0.0,77,0.00,CLR,SCT,0.00,WeatherDisplay:10.37,2013-06-01 11:38:00,
2013-06-01 07:39:00,65.0,57.6,29.93,SSE,163,0.0,0.0,77,0.00,CLR,SCT,0.00,WeatherDisplay:10.37,2013-06-01 11:39:00,
2013-06-01 07:40:00,65.2,57.8,29.93,SSE,163,0.0,0.0,77,0.00,CLR,SCT,0.00,WeatherDisplay:10.37,2013-06-01 11:40:00,
2013-06-01 07:44:00,65.5,58.1,29.93,SSE,163,0.0,0.0,77,0.00,CLR,SCT,0.00,WeatherDisplay:10.37,2013-06-01 11:44:00,
2013-06-01 07:45:00,65.6,58.2,29.93,SSE,163,0.0,0.0,77,0.00,CLR,SCT,0.00,WeatherDisplay:10.37,2013-06-01 11:45:00,
2013-06-01 07:46:00,65.8,58.4,29.93,SSE,164,0.0,0.0,77,0.00,CLR,SCT,0.00,WeatherDisplay:10.37,2013-06-01 11:46:00,
2013-06-01 07:50:00,66.1,58.7,29.93,SSE,163,0.0,0.0,77,0.00,CLR,SCT,0.00,WeatherDisplay:10.37,2013-06-01 11:50:00,
2013-06-01 07:51:00,66.3,58.9,29.93,SSE,164,0.0,0.0,77,0.00,CLR,SCT,0.00,WeatherDisplay:10.37,2013-06-01 11:51:00,
2013-06-01 07:52:00,66.3,58.9,29.93,SSE,163,0.0,0.0,77,0.00,CLR,SCT,0.00,WeatherDisplay:10.37,2013-06-01 11:52:00,
2013-06-01 07:57:00,66.9,59.5,29.93,SSE,163,0.0,0.0,77,0.00,CLR,SCT,0.00,WeatherDisplay:10.37,2013-06-01 11:57:00,
2013-06-01 07:58:00,67.1,59.6,29.93,SSE,164,0.0,0.0,77,0.00,CLR,SCT,0.00,WeatherDisplay:10.37,2013-06-01 11:58:00,
2013-06-01 07:59:00,67.3,59.8,29.93,SSE,163,0.0,0.0,77,0.00,CLR,SCT,0.00,WeatherDisplay:10.37,2013-06-01 11:59:00,
2013-06-01 08:00:00,67.4,60.3,29.93,SSE,163,0.0,0.0,78,0.00,CLR,SCT,0.00,WeatherDisplay:10.37,2013-06-01 12:00:00,
2013-06-01 08:05:00,68.6,61.1,29.92,SSE,163,0.0,0.0,77,0.00,CLR,SCT,0.00,WeatherDisplay:10.37,2013-06-01 12:05:00,
2013-06-01 08:06:00,68.8,61.3,29.93,SSE,163,0.0,0.0,77,0.00,CLR,SCT,0.00,WeatherDisplay:10.37,2013-06-01 12:06:00,
2013-06-01 08:08:00,69.1,61.6,29.93,SSE,163,0.0,0.0,77,0.00,CLR,SCT,0.00,WeatherDisplay:10.37,2013-06-01 12:08:00,
2013-06-01 08:10:00,69.4,61.9,29.93,SSE,164,0.0,0.0,77,0.00,CLR,SCT,0.00,WeatherDisplay:10.37,2013-06-01 12:10:00,
2013-06-01 08:11:00,69.6,62.1,29.93,SSE,163,0.0,0.0,77,0.00,CLR,SCT,0.00,WeatherDisplay:10.37,2013-06-01 12:11:00,
2013-06-01 08:15:00,70.3,62.7,29.93,SSE,163,0.0,0.0,77,0.00,CLR,SCT,0.00,WeatherDisplay:10.37,2013-06-01 12:15:00,
2013-06-01 08:17:00,70.6,63.0,29.93,SSE,163,0.0,0.0,77,0.00,CLR,SCT,0.00,WeatherDisplay:10.37,2013-06-01 12:17:00,
2013-06-01 08:18:00,70.8,63.2,29.93,SSE,163,0.0,0.0,77,0.00,CLR,SCT,0.00,WeatherDisplay:10.37,2013-06-01 12:18:00,
2013-06-01 08:20:00,71.1,63.5,29.93,SSE,163,0.0,0.0,77,0.00,CLR,SCT,0.00,WeatherDisplay:10.37,2013-06-01 12:20:00,
2013-06-01 08:23:00,71.6,64.0,29.92,SSE,163,0.0,0.0,77,0.00,CLR,SCT,0.00,WeatherDisplay:10.37,2013-06-01 12:23:00,
2013-06-01 08:26:00,72.0,64.0,29.92,SSE,163,0.0,0.0,76,0.00,CLR,SCT,0.00,WeatherDisplay:10.37,2013-06-01 12:26:00,
2013-06-01 08:28:00,72.1,64.1,29.92,SSE,163,0.0,0.0,76,0.00,CLR,SCT,0.00,WeatherDisplay:10.37,2013-06-01 12:28:00,
2013-06-01 08:32:00,72.8,64.8,29.92,SSE,163,0.0,0.0,76,0.00,CLR,SCT,0.00,WeatherDisplay:10.37,2013-06-01 12:32:00,
2013-06-01 08:33:00,73.0,65.0,29.92,SSE,163,0.0,0.0,76,0.00,CLR,SCT,0.00,WeatherDisplay:10.37,2013-06-01 12:33:00,
2013-06-01 08:35:00,73.3,65.3,29.92,SSE,163,0.0,0.0,76,0.00,CLR,SCT,0.00,WeatherDisplay:10.37,2013-06-01 12:35:00,
2013-06-01 08:37:00,73.7,65.3,29.92,SSE,163,0.0,0.0,75,0.00,CLR,SCT,0.00,WeatherDisplay:10.37,2013-06-01 12:37:00,
2013-06-01 08:39:00,74.0,65.6,29.92,SSE,163,0.0,0.0,75,0.00,CLR,SCT,0.00,WeatherDisplay:10.37,2013-06-01 12:39:00,
2013-06-01 08:40:00,74.2,65.8,29.92,SSE,163,0.0,0.0,75,0.00,CLR,SCT,0.00,WeatherDisplay:10.37,2013-06-01 12:40:00,
2013-06-01 08:43:00,74.7,66.2,29.92,SSE,163,0.0,0.0,75,0.00,CLR,SCT,0.00,WeatherDisplay:10.37,2013-06-01 12:43:00,
2013-06-01 08:45:00,75.1,66.6,29.92,SSE,164,0.0,0.0,75,0.00,CLR,SCT,0.00,WeatherDisplay:10.37,2013-06-01 12:45:00,
2013-06-01 08:48:00,75.4,66.5,29.92,SSE,163,0.0,0.0,74,0.00,CLR,SCT,0.00,WeatherDisplay:10.37,2013-06-01 12:48:00,
2013-06-01 08:49:00,75.6,66.7,29.92,SSE,164,0.0,0.0,74,0.00,CLR,SCT,0.00,WeatherDisplay:10.37,2013-06-01 12:49:00,
2013-06-01 08:51:00,75.8,66.9,29.92,SSE,163,0.0,0.0,74,0.00,CLR,SCT,0.00,WeatherDisplay:10.37,2013-06-01 12:51:00,
2013-06-01 08:53:00,76.1,66.8,29.92,SSE,163,0.0,0.0,73,0.00,CLR,SCT,0.00,WeatherDisplay:10.37,2013-06-01 12:53:00,
2013-06-01 08:55:00,76.5,67.2,29.92,SSE,163,0.0,0.0,73,0.00,CLR,SCT,0.00,WeatherDisplay:10.37,2013-06-01 12:55:00,
2013-06-01 08:56:00,76.5,67.2,29.92,SSE,163,0.0,0.0,73,0.00,CLR,SCT,0.00,WeatherDisplay:10.37,2013-06-01 12:56:00,
2013-06-01 08:57:00,76.7,67.0,29.92,SSE,163,0.0,0.0,72,0.00,CLR,SCT,0.00,WeatherDisplay:10.37,2013-06-01 12:57:00,
2013-06-01 08:59:00,76.8,67.1,29.92,SSE,163,0.0,0.0,72,0.00,CLR,SCT,0.00,WeatherDisplay:10.37,2013-06-01 12:59:00,
2013-06-01 09:00:00,77.0,67.3,29.92,SSE,163,0.0,0.0,72,0.00,CLR,SCT,0.00,WeatherDisplay:10.37,2013-06-01 13:00:00,
2013-06-01 09:02:00,77.2,67.5,29.92,SSE,163,0.0,0.0,72,0.00,CLR,SCT,0.00,WeatherDisplay:10.37,2013-06-01 13:02:00,
2013-06-01 09:04:00,77.4,67.3,29.92,SSE,163,0.0,0.0,71,0.00,CLR,SCT,0.00,WeatherDisplay:10.37,2013-06-01 13:04:00,
2013-06-01 09:05:00,77.4,67.3,29.92,SSE,163,0.0,0.0,71,0.00,CLR,SCT,0.00,WeatherDisplay:10.37,2013-06-01 13:05:00,
2013-06-01 09:06:00,77.6,67.4,29.92,SSE,163,0.0,0.0,71,0.00,CLR,SCT,0.00,WeatherDisplay:10.37,2013-06-01 13:06:00,
2013-06-01 09:08:00,77.7,67.1,29.92,SSE,163,0.0,0.0,70,0.00,CLR,SCT,0.00,WeatherDisplay:10.37,2013-06-01 13:08:00,
2013-06-01 09:10:00,77.9,67.3,29.92,SSE,163,0.0,0.0,70,0.00,CLR,SCT,0.00,WeatherDisplay:10.37,2013-06-01 13:10:00,
2013-06-01 09:11:00,77.9,66.9,29.92,SSE,163,0.0,0.0,69,0.00,CLR,SCT,0.00,WeatherDisplay:10.37,2013-06-01 13:11:00,
2013-06-01 09:14:00,78.1,67.1,29.92,SSE,163,0.0,0.0,69,0.00,CLR,SCT,0.00,WeatherDisplay:10.37,2013-06-01 13:14:00,
2013-06-01 09:16:00,78.3,67.3,29.92,SSE,163,0.0,0.0,69,0.00,CLR,SCT,0.00,WeatherDisplay:10.37,2013-06-01 13:16:00,
2013-06-01 09:17:00,78.3,67.3,29.92,SSE,163,0.0,0.0,69,0.00,CLR,SCT,0.00,WeatherDisplay:10.37,2013-06-01 13:17:00,
2013-06-01 09:18:00,78.5,67.5,29.91,SSE,163,0.0,0.0,69,0.00,CLR,SCT,0.00,WeatherDisplay:10.37,2013-06-01 13:18:00,
2013-06-01 09:21:00,78.6,67.2,29.92,SSE,163,3.5,3.5,68,0.00,CLR,SCT,0.00,WeatherDisplay:10.37,2013-06-01 13:21:00,
2013-06-01 09:22:00,78.6,67.2,29.92,SSE,164,3.5,0.0,68,0.00,CLR,SCT,0.00,WeatherDisplay:10.37,2013-06-01 13:22:00,
2013-06-01 09:25:00,78.8,67.3,29.92,SSE,164,1.0,0.0,68,0.00,CLR,SCT,0.00,WeatherDisplay:10.37,2013-06-01 13:25:00,
2013-06-01 09:27:00,78.8,67.3,29.91,WSW,255,3.0,3.0,68,0.00,CLR,SCT,0.00,WeatherDisplay:10.37,2013-06-01 13:27:00,
2013-06-01 09:29:00,78.8,66.9,29.92,SW,225,4.6,4.6,67,0.00,CLR,SCT,0.00,WeatherDisplay:10.37,2013-06-01 13:29:00,
2013-06-01 09:30:00,78.8,66.9,29.92,SSW,211,5.8,5.8,67,0.00,CLR,SCT,0.00,WeatherDisplay:10.37,2013-06-01 13:30:00,
2013-06-01 09:32:00,79.0,66.7,29.92,West,266,3.5,4.2,66,0.00,CLR,SCT,0.00,WeatherDisplay:10.37,2013-06-01 13:32:00,
2013-06-01 09:35:00,79.0,66.7,29.91,West,269,5.8,5.8,66,0.00,CLR,SCT,0.00,WeatherDisplay:10.37,2013-06-01 13:35:00,
2013-06-01 09:36:00,79.0,66.2,29.91,West,269,3.5,4.3,65,0.00,CLR,SCT,0.00,WeatherDisplay:10.37,2013-06-01 13:36:00,
2013-06-01 09:37:00,79.0,66.2,29.91,West,269,6.9,6.9,65,0.00,CLR,SCT,0.00,WeatherDisplay:10.37,2013-06-01 13:37:00,
2013-06-01 09:41:00,79.2,66.4,29.91,WSW,240,4.6,4.6,65,0.00,CLR,SCT,0.00,WeatherDisplay:10.37,2013-06-01 13:41:00,
2013-06-01 09:42:00,79.2,66.4,29.91,WSW,238,4.0,4.0,65,0.00,CLR,SCT,0.00,WeatherDisplay:10.37,2013-06-01 13:42:00,
2013-06-01 09:43:00,79.2,66.4,29.91,SW,233,3.5,3.5,65,0.00,CLR,SCT,0.00,WeatherDisplay:10.37,2013-06-01 13:43:00,
2013-06-01 09:45:00,79.2,66.0,29.91,SSW,208,4.6,4.6,64,0.00,CLR,SCT,0.00,WeatherDisplay:10.37,2013-06-01 13:45:00,
2013-06-01 09:46:00,79.4,66.2,29.91,SSW,209,3.5,3.5,64,0.00,CLR,SCT,0.00,WeatherDisplay:10.37,2013-06-01 13:46:00,
2013-06-01 09:47:00,79.4,66.2,29.91,SSW,213,3.5,3.5,64,0.00,CLR,SCT,0.00,WeatherDisplay:10.37,2013-06-01 13:47:00,
2013-06-01 09:50:00,79.6,65.9,29.91,SW,214,3.5,3.5,63,0.00,CLR,SCT,0.00,WeatherDisplay:10.37,2013-06-01 13:50:00,
2013-06-01 09:52:00,79.6,66.3,29.91,SW,227,3.0,3.0,64,0.00,CLR,SCT,0.00,WeatherDisplay:10.37,2013-06-01 13:52:00,
2013-06-01 09:53:00,79.6,65.9,29.91,WSW,253,3.5,4.8,63,0.00,CLR,SCT,0.00,WeatherDisplay:10.37,2013-06-01 13:53:00,
2013-06-01 09:55:00,79.8,66.1,29.91,WSW,251,4.0,4.0,63,0.00,CLR,SCT,0.00,WeatherDisplay:10.37,2013-06-01 13:55:00,
2013-06-01 09:56:00,79.8,65.6,29.91,WSW,247,4.6,4.6,62,0.00,CLR,SCT,0.00,WeatherDisplay:10.37,2013-06-01 13:56:00,
2013-06-01 09:57:00,79.8,65.6,29.91,West,271,5.8,5.8,62,0.00,CLR,SCT,0.00,WeatherDisplay:10.37,2013-06-01 13:57:00,
2013-06-01 10:00:00,79.8,65.6,29.91,WSW,257,3.5,0.0,62,0.00,CLR,SCT,0.00,WeatherDisplay:10.37,2013-06-01 14:00:00,
2013-06-01 10:02:00,79.9,65.7,29.91,SW,236,3.5,3.5,62,0.00,CLR,SCT,0.00,WeatherDisplay:10.37,2013-06-01 14:02:00,
2013-06-01 10:04:00,79.9,65.7,29.91,SW,236,1.1,0.0,62,0.00,CLR,SCT,0.00,WeatherDisplay:10.37,2013-06-01 14:04:00,
2013-06-01 10:06:00,80.1,65.9,29.91,SW,236,0.0,0.0,62,0.00,CLR,SCT,0.00,WeatherDisplay:10.37,2013-06-01 14:06:00,
2013-06-01 10:07:00,80.1,66.4,29.91,WSW,250,5.0,5.0,63,0.00,CLR,SCT,0.00,WeatherDisplay:10.37,2013-06-01 14:07:00,
2013-06-01 10:09:00,80.3,66.1,29.91,SW,236,5.8,5.8,62,0.00,CLR,SCT,0.00,WeatherDisplay:10.37,2013-06-01 14:09:00,
2013-06-01 10:10:00,80.3,66.1,29.91,SW,236,3.5,3.5,62,0.00,CLR,SCT,0.00,WeatherDisplay:10.37,2013-06-01 14:10:00,
2013-06-01 10:11:00,80.5,66.3,29.91,SW,236,3.5,3.5,62,0.00,CLR,SCT,0.00,WeatherDisplay:10.37,2013-06-01 14:11:00,
2013-06-01 10:14:00,80.7,66.0,29.90,SSW,205,2.3,2.3,61,0.00,CLR,SCT,0.00,WeatherDisplay:10.37,2013-06-01 14:14:00,
2013-06-01 10:15:00,80.7,66.0,29.90,SSW,205,3.5,3.5,61,0.00,CLR,SCT,0.00,WeatherDisplay:10.37,2013-06-01 14:15:00,
2013-06-01 10:16:00,80.7,66.0,29.90,SSW,205,0.0,0.8,61,0.00,CLR,SCT,0.00,WeatherDisplay:10.37,2013-06-01 14:16:00,
2013-06-01 10:19:00,80.9,65.7,29.90,SSW,205,2.3,2.3,60,0.00,CLR,SCT,0.00,WeatherDisplay:10.37,2013-06-01 14:19:00,
2013-06-01 10:20:00,80.9,65.7,29.90,SSW,205,1.1,1.1,60,0.00,CLR,SCT,0.00,WeatherDisplay:10.37,2013-06-01 14:20:00,
2013-06-01 10:21:00,81.1,65.9,29.90,SSW,203,3.0,3.0,60,0.00,CLR,SCT,0.00,WeatherDisplay:10.37,2013-06-01 14:21:00,
2013-06-01 10:22:00,81.1,65.9,29.90,SSW,204,5.0,5.0,60,0.00,CLR,SCT,0.00,WeatherDisplay:10.37,2013-06-01 14:22:00,
2013-06-01 10:26:00,81.4,65.7,29.90,SSW,196,3.5,3.5,59,0.00,CLR,SCT,0.00,WeatherDisplay:10.37,2013-06-01 14:26:00,
2013-06-01 10:27:00,81.4,66.2,29.90,SSW,196,1.1,1.1,60,0.00,CLR,SCT,0.00,WeatherDisplay:10.37,2013-06-01 14:27:00,
2013-06-01 10:29:00,81.6,65.9,29.90,SE,134,6.9,6.9,59,0.00,CLR,SCT,0.00,WeatherDisplay:10.37,2013-06-01 14:29:00,
2013-06-01 10:30:00,81.6,65.9,29.90,SE,134,5.8,5.8,59,0.00,CLR,SCT,0.00,WeatherDisplay:10.37,2013-06-01 14:30:00,
2013-06-01 10:33:00,81.8,66.1,29.90,SE,138,3.0,3.0,59,0.00,CLR,SCT,0.00,WeatherDisplay:10.37,2013-06-01 14:33:00,
2013-06-01 10:34:00,81.8,65.6,29.90,SSE,158,3.5,3.5,58,0.00,CLR,SCT,0.00,WeatherDisplay:10.37,2013-06-01 14:34:00,
2013-06-01 10:35:00,81.8,65.6,29.90,WSW,255,5.0,5.0,58,0.00,CLR,SCT,0.00,WeatherDisplay:10.37,2013-06-01 14:35:00,
2013-06-01 10:36:00,81.8,65.6,29.90,WSW,250,7.0,7.0,58,0.00,CLR,SCT,0.00,WeatherDisplay:10.37,2013-06-01 14:36:00,
2013-06-01 10:41:00,81.8,65.1,29.90,WSW,251,5.8,5.8,57,0.00,CLR,SCT,0.00,WeatherDisplay:10.37,2013-06-01 14:41:00,
2013-06-01 10:42:00,81.8,65.1,29.90,SW,215,4.6,4.6,57,0.00,CLR,SCT,0.00,WeatherDisplay:10.37,2013-06-01 14:42:00,
2013-06-01 10:43:00,81.8,65.1,29.90,West,279,6.0,6.0,57,0.00,CLR,SCT,0.00,WeatherDisplay:10.37,2013-06-01 14:43:00,
2013-06-01 10:47:00,81.8,65.1,29.90,SW,232,3.5,3.5,57,0.00,CLR,SCT,0.00,WeatherDisplay:10.37,2013-06-01 14:47:00,
2013-06-01 10:48:00,81.8,65.1,29.90,SSW,213,2.3,2.3,57,0.00,CLR,SCT,0.00,WeatherDisplay:10.37,2013-06-01 14:48:00,
2013-06-01 10:49:00,81.8,65.1,29.90,SSW,213,3.5,3.5,57,0.00,CLR,SCT,0.00,WeatherDisplay:10.37,2013-06-01 14:49:00,
2013-06-01 10:51:00,81.8,64.6,29.89,SSW,208,3.5,3.5,56,0.00,CLR,SCT,0.00,WeatherDisplay:10.37,2013-06-01 14:51:00,
2013-06-01 10:55:00,81.8,64.6,29.89,South,188,3.5,3.5,56,0.00,CLR,SCT,0.00,WeatherDisplay:10.37,2013-06-01 14:55:00,
2013-06-01 10:56:00,81.8,64.6,29.89,South,188,4.6,4.6,56,0.00,CLR,SCT,0.00,WeatherDisplay:10.37,2013-06-01 14:56:00,
2013-06-01 10:57:00,81.8,64.6,29.89,South,188,4.6,4.6,56,0.00,CLR,SCT,0.00,WeatherDisplay:10.37,2013-06-01 14:57:00,
2013-06-01 10:58:00,82.0,64.8,29.89,South,189,4.6,4.6,56,0.00,CLR,SCT,0.00,WeatherDisplay:10.37,2013-06-01 14:58:00,
2013-06-01 11:00:00,82.0,64.8,29.90,SSW,192,4.0,4.0,56,0.00,CLR,SCT,0.00,WeatherDisplay:10.37,2013-06-01 15:00:00,
2013-06-01 11:02:00,82.0,64.8,29.89,SSE,168,6.9,6.9,56,0.00,CLR,SCT,0.00,WeatherDisplay:10.37,2013-06-01 15:02:00,
2013-06-01 11:03:00,82.2,64.4,29.89,South,185,9.2,9.2,55,0.00,CLR,SCT,0.00,WeatherDisplay:10.37,2013-06-01 15:03:00,
2013-06-01 11:08:00,82.4,64.1,29.89,WSW,257,11.5,11.5,54,0.00,CLR,SCT,0.00,WeatherDisplay:10.37,2013-06-01 15:08:00,
2013-06-01 11:09:00,82.4,64.6,29.89,SW,219,3.5,3.5,55,0.00,CLR,SCT,0.00,WeatherDisplay:10.37,2013-06-01 15:09:00,
2013-06-01 11:10:00,82.4,64.6,29.89,SW,218,3.5,3.5,55,0.00,CLR,SCT,0.00,WeatherDisplay:10.37,2013-06-01 15:10:00,
2013-06-01 11:11:00,82.4,64.1,29.89,WSW,257,3.5,3.5,54,0.00,CLR,SCT,0.00,WeatherDisplay:10.37,2013-06-01 15:11:00,
2013-06-01 11:12:00,82.4,64.1,29.89,West,263,9.2,9.2,54,0.00,CLR,SCT,0.00,WeatherDisplay:10.37,2013-06-01 15:12:00,
2013-06-01 11:15:00,82.6,64.3,29.89,WSW,257,11.5,11.5,54,0.00,CLR,SCT,0.00,WeatherDisplay:10.37,2013-06-01 15:15:00,
2013-06-01 11:17:00,82.6,64.3,29.89,South,186,6.9,6.9,54,0.00,CLR,SCT,0.00,WeatherDisplay:10.37,2013-06-01 15:17:00,
2013-06-01 11:18:00,82.6,64.3,29.89,SSW,200,5.8,5.8,54,0.00,CLR,SCT,0.00,WeatherDisplay:10.37,2013-06-01 15:18:00,
2013-06-01 11:20:00,82.6,63.7,29.89,SSW,207,10.4,10.4,53,0.00,CLR,SCT,0.00,WeatherDisplay:10.37,2013-06-01 15:20:00,
2013-06-01 11:23:00,82.6,62.6,29.90,West,271,9.2,9.2,51,0.00,CLR,SCT,0.00,WeatherDisplay:10.37,2013-06-01 15:23:00,
2013-06-01 11:25:00,82.6,63.2,29.90,South,185,6.9,6.9,52,0.00,CLR,SCT,0.00,WeatherDisplay:10.37,2013-06-01 15:25:00,
2013-06-01 11:26:00,82.6,63.7,29.90,West,271,11.5,11.5,53,0.00,CLR,SCT,0.00,WeatherDisplay:10.37,2013-06-01 15:26:00,
2013-06-01 11:30:00,82.8,62.3,29.90,SSW,209,4.6,4.6,50,0.00,CLR,SCT,0.00,WeatherDisplay:10.37,2013-06-01 15:30:00,
2013-06-01 11:31:00,82.8,63.4,29.90,SSW,198,10.4,10.4,52,0.00,CLR,SCT,0.00,WeatherDisplay:10.37,2013-06-01 15:31:00,
2013-06-01 11:35:00,83.0,63.6,29.90,WSW,242,9.2,9.2,52,0.00,CLR,SCT,0.00,WeatherDisplay:10.37,2013-06-01 15:35:00,
2013-06-01 11:36:00,83.2,63.7,29.90,WSW,239,6.9,6.9,52,0.00,CLR,SCT,0.00,WeatherDisplay:10.37,2013-06-01 15:36:00,
2013-06-01 11:37:00,83.2,64.3,29.90,SW,236,6.9,6.9,53,0.00,CLR,SCT,0.00,WeatherDisplay:10.37,2013-06-01 15:37:00,
2013-06-01 11:38:00,83.2,63.7,29.90,South,189,6.0,6.0,52,0.00,CLR,SCT,0.00,WeatherDisplay:10.37,2013-06-01 15:38:00,
2013-06-01 11:41:00,83.2,63.7,29.90,West,261,10.4,10.4,52,0.00,CLR,SCT,0.00,WeatherDisplay:10.37,2013-06-01 15:41:00,
2013-06-01 11:42:00,83.2,63.2,29.90,West,261,10.4,10.4,51,0.00,CLR,SCT,0.00,WeatherDisplay:10.37,2013-06-01 15:42:00,
2013-06-01 11:44:00,83.0,63.0,29.90,South,191,11.5,11.5,51,0.00,CLR,SCT,0.00,WeatherDisplay:10.37,2013-06-01 15:44:00,
2013-06-01 11:46:00,82.8,62.3,29.90,WSW,251,11.5,11.5,50,0.00,CLR,SCT,0.00,WeatherDisplay:10.37,2013-06-01 15:46:00,
2013-06-01 11:49:00,82.4,62.5,29.90,WSW,254,11.5,11.5,51,0.00,CLR,SCT,0.00,WeatherDisplay:10.37,2013-06-01 15:49:00,
2013-06-01 11:50:00,82.4,62.5,29.90,West,259,11.5,11.5,51,0.00,CLR,SCT,0.00,WeatherDisplay:10.37,2013-06-01 15:50:00,
2013-06-01 11:51:00,82.2,62.3,29.90,WSW,258,11.5,11.5,51,0.00,CLR,SCT,0.00,WeatherDisplay:10.37,2013-06-01 15:51:00,
2013-06-01 11:56:00,81.8,62.5,29.90,West,259,11.5,11.5,52,0.00,CLR,SCT,0.00,WeatherDisplay:10.37,2013-06-01 15:56:00,
2013-06-01 11:59:00,81.8,61.9,29.90,West,259,12.7,12.7,51,0.00,CLR,SCT,0.00,WeatherDisplay:10.37,2013-06-01 15:59:00,
2013-06-01 12:02:00,81.8,61.9,29.90,WSW,250,10.4,10.4,51,0.00,CLR,SCT,0.00,WeatherDisplay:10.37,2013-06-01 16:02:00,
2013-06-01 12:03:00,81.8,61.9,29.90,WSW,251,9.2,9.2,51,0.00,CLR,SCT,0.00,WeatherDisplay:10.37,2013-06-01 16:03:00,
2013-06-01 12:04:00,81.8,61.9,29.90,WSW,244,10.4,10.4,51,0.00,CLR,SCT,0.00,WeatherDisplay:10.37,2013-06-01 16:04:00,
2013-06-01 12:05:00,82.0,62.1,29.90,West,259,9.2,9.2,51,0.00,CLR,SCT,0.00,WeatherDisplay:10.37,2013-06-01 16:05:00,
2013-06-01 12:06:00,82.0,62.1,29.90,SW,232,10.4,10.4,51,0.00,CLR,SCT,0.00,WeatherDisplay:10.37,2013-06-01 16:06:00,
2013-06-01 12:08:00,82.2,62.8,29.90,WSW,253,6.0,6.0,52,0.00,CLR,SCT,0.00,WeatherDisplay:10.37,2013-06-01 16:08:00,
2013-06-01 12:09:00,82.2,63.4,29.90,WSW,248,5.8,5.8,53,0.00,CLR,SCT,0.00,WeatherDisplay:10.37,2013-06-01 16:09:00,
2013-06-01 12:10:00,82.4,63.5,29.90,West,275,8.0,8.0,53,0.00,CLR,SCT,0.00,WeatherDisplay:10.37,2013-06-01 16:10:00,
2013-06-01 12:11:00,82.6,63.2,29.90,SW,227,9.2,9.2,52,0.00,CLR,SCT,0.00,WeatherDisplay:10.37,2013-06-01 16:11:00,
2013-06-01 12:13:00,82.8,63.9,29.90,WSW,250,10.4,10.4,53,0.00,CLR,SCT,0.00,WeatherDisplay:10.37,2013-06-01 16:13:00,
2013-06-01 12:16:00,83.2,63.7,29.90,West,277,8.1,8.1,52,0.00,CLR,SCT,0.00,WeatherDisplay:10.37,2013-06-01 16:16:00,
2013-06-01 12:19:00,83.4,63.9,29.90,WSW,250,3.5,3.5,52,0.00,CLR,SCT,0.00,WeatherDisplay:10.37,2013-06-01 16:19:00,
2013-06-01 12:20:00,83.4,63.4,29.90,WSW,252,5.8,5.8,51,0.00,CLR,SCT,0.00,WeatherDisplay:10.37,2013-06-01 16:20:00,
2013-06-01 12:23:00,83.2,62.6,29.90,SSW,192,8.1,8.1,50,0.00,CLR,SCT,0.00,WeatherDisplay:10.37,2013-06-01 16:23:00,
2013-06-01 12:25:00,83.0,62.4,29.90,SSW,203,3.0,5.0,50,0.00,CLR,SCT,0.00,WeatherDisplay:10.37,2013-06-01 16:25:00,
2013-06-01 12:26:00,83.0,62.4,29.90,SSW,199,8.1,8.1,50,0.00,CLR,SCT,0.00,WeatherDisplay:10.37,2013-06-01 16:26:00,
2013-06-01 12:27:00,82.8,62.3,29.90,WSW,253,8.1,8.1,50,0.00,CLR,SCT,0.00,WeatherDisplay:10.37,2013-06-01 16:27:00,
2013-06-01 12:31:00,82.8,61.7,29.90,South,191,10.4,10.4,49,0.00,CLR,SCT,0.00,WeatherDisplay:10.37,2013-06-01 16:31:00,
2013-06-01 12:33:00,82.8,62.3,29.90,SW,215,11.5,11.5,50,0.00,CLR,SCT,0.00,WeatherDisplay:10.37,2013-06-01 16:33:00,
2013-06-01 12:34:00,82.8,62.3,29.90,SSW,204,6.9,6.9,50,0.00,CLR,SCT,0.00,WeatherDisplay:10.37,2013-06-01 16:34:00,
2013-06-01 12:35:00,82.8,62.8,29.90,SSW,194,6.9,6.9,51,0.00,CLR,SCT,0.00,WeatherDisplay:10.37,2013-06-01 16:35:00,
2013-06-01 12:39:00,83.0,62.4,29.90,SSW,195,3.5,0.0,50,0.00,CLR,SCT,0.00,WeatherDisplay:10.37,2013-06-01 16:39:00,
2013-06-01 12:40:00,83.0,62.4,29.90,SSW,195,0.0,0.4,50,0.00,CLR,SCT,0.00,WeatherDisplay:10.37,2013-06-01 16:40:00,
2013-06-01 12:41:00,83.2,63.2,29.90,WSW,238,2.3,2.3,51,0.00,CLR,SCT,0.00,WeatherDisplay:10.37,2013-06-01 16:41:00,
2013-06-01 12:43:00,83.4,63.4,29.90,South,187,5.0,5.0,51,0.00,CLR,SCT,0.00,WeatherDisplay:10.37,2013-06-01 16:43:00,
2013-06-01 12:46:00,83.8,62.6,29.90,SSW,195,11.5,11.5,49,0.00,CLR,SCT,0.00,WeatherDisplay:10.37,2013-06-01 16:46:00,
2013-06-01 12:48:00,84.0,63.4,29.90,South,183,6.9,6.9,50,0.00,CLR,SCT,0.00,WeatherDisplay:10.37,2013-06-01 16:48:00,
2013-06-01 12:49:00,84.0,63.4,29.90,SSW,205,8.1,8.1,50,0.00,CLR,SCT,0.00,WeatherDisplay:10.37,2013-06-01 16:49:00,
2013-06-01 12:50:00,84.0,63.4,29.90,WSW,247,6.9,6.9,50,0.00,CLR,SCT,0.00,WeatherDisplay:10.37,2013-06-01 16:50:00,
2013-06-01 12:53:00,84.0,63.4,29.90,SW,218,4.0,4.0,50,0.00,CLR,SCT,0.00,WeatherDisplay:10.37,2013-06-01 16:53:00,
2013-06-01 12:54:00,84.0,63.4,29.90,SW,219,6.0,6.0,50,0.00,CLR,SCT,0.00,WeatherDisplay:10.37,2013-06-01 16:54:00,
2013-06-01 12:55:00,84.0,62.8,29.90,SW,219,5.8,5.8,49,0.00,CLR,SCT,0.00,WeatherDisplay:10.37,2013-06-01 16:55:00,
2013-06-01 12:57:00,84.0,63.4,29.90,WSW,248,4.0,4.0,50,0.00,CLR,SCT,0.00,WeatherDisplay:10.37,2013-06-01 16:57:00,
2013-06-01 12:59:00,84.1,62.9,29.90,WSW,242,9.2,9.2,49,0.00,CLR,SCT,0.00,WeatherDisplay:10.37,2013-06-01 16:59:00,
2013-06-01 13:00:00,84.1,62.9,29.90,WSW,253,6.9,6.9,49,0.00,CLR,SCT,0.00,WeatherDisplay:10.37,2013-06-01 17:00:00,
2013-06-01 13:03:00,84.1,62.9,29.90,WSW,238,8.1,8.1,49,0.00,CLR,SCT,0.00,WeatherDisplay:10.37,2013-06-01 17:03:00,
2013-06-01 13:04:00,84.3,63.1,29.90,SSW,207,6.0,6.0,49,0.00,CLR,SCT,0.00,WeatherDisplay:10.37,2013-06-01 17:04:00,
2013-06-01 13:06:00,84.3,62.5,29.89,SSW,203,8.1,8.1,48,0.00,CLR,SCT,0.00,WeatherDisplay:10.37,2013-06-01 17:06:00,
2013-06-01 13:08:00,84.3,62.5,29.89,SSW,196,5.8,5.8,48,0.00,CLR,SCT,0.00,WeatherDisplay:10.37,2013-06-01 17:08:00,
2013-06-01 13:09:00,84.3,62.5,29.89,WSW,257,5.0,5.0,48,0.00,CLR,SCT,0.00,WeatherDisplay:10.37,2013-06-01 17:09:00,
2013-06-01 13:10:00,84.3,63.1,29.89,SW,221,5.8,5.8,49,0.00,CLR,SCT,0.00,WeatherDisplay:10.37,2013-06-01 17:10:00,
2013-06-01 13:13:00,84.3,63.1,29.89,SSW,206,3.5,3.5,49,0.00,CLR,SCT,0.00,WeatherDisplay:10.37,2013-06-01 17:13:00,
2013-06-01 13:14:00,84.5,63.2,29.88,SW,236,5.8,5.8,49,0.00,CLR,SCT,0.00,WeatherDisplay:10.37,2013-06-01 17:14:00,
2013-06-01 13:16:00,84.5,63.2,29.88,South,184,6.9,6.9,49,0.00,CLR,SCT,0.00,WeatherDisplay:10.37,2013-06-01 17:16:00,
2013-06-01 13:19:00,84.7,62.8,29.88,SSE,157,3.5,3.5,48,0.00,CLR,SCT,0.00,WeatherDisplay:10.37,2013-06-01 17:19:00,
2013-06-01 13:21:00,84.9,63.0,29.88,SSW,209,5.8,5.8,48,0.00,CLR,SCT,0.00,WeatherDisplay:10.37,2013-06-01 17:21:00,
2013-06-01 13:23:00,84.9,63.6,29.88,SSE,154,2.3,2.3,49,0.00,CLR,SCT,0.00,WeatherDisplay:10.37,2013-06-01 17:23:00,
2013-06-01 13:24:00,85.1,63.2,29.88,SSE,160,3.5,0.0,48,0.00,CLR,SCT,0.00,WeatherDisplay:10.37,2013-06-01 17:24:00,
2013-06-01 13:25:00,85.1,63.2,29.88,South,171,1.1,1.7,48,0.00,CLR,SCT,0.00,WeatherDisplay:10.37,2013-06-01 17:25:00,
2013-06-01 13:27:00,85.1,62.6,29.88,SSE,153,4.6,4.6,47,0.00,CLR,SCT,0.00,WeatherDisplay:10.37,2013-06-01 17:27:00,
2013-06-01 13:29:00,85.1,63.2,29.88,SSE,155,5.0,5.0,48,0.00,CLR,SCT,0.00,WeatherDisplay:10.37,2013-06-01 17:29:00,
2013-06-01 13:30:00,85.3,62.8,29.88,SSE,155,9.2,9.2,47,0.00,CLR,SCT,0.00,WeatherDisplay:10.37,2013-06-01 17:30:00,
2013-06-01 13:35:00,85.5,63.6,29.88,SW,221,2.3,2.7,48,0.00,CLR,SCT,0.00,WeatherDisplay:10.37,2013-06-01 17:35:00,
2013-06-01 13:36:00,85.5,63.6,29.88,SW,233,5.8,5.8,48,0.00,CLR,SCT,0.00,WeatherDisplay:10.37,2013-06-01 17:36:00,
2013-06-01 13:39:00,85.5,65.9,29.87,SSW,211,4.6,4.6,52,0.00,CLR,SCT,0.00,WeatherDisplay:10.37,2013-06-01 17:39:00,
2013-06-01 13:41:00,85.5,63.0,29.87,SSW,211,5.8,5.8,47,0.00,CLR,SCT,0.00,WeatherDisplay:10.37,2013-06-01 17:41:00,
2013-06-01 13:42:00,85.3,63.4,29.87,SSW,211,5.8,5.8,48,0.00,CLR,SCT,0.00,WeatherDisplay:10.37,2013-06-01 17:42:00,
2013-06-01 13:43:00,85.3,63.4,29.87,SSW,211,1.1,0.0,48,0.00,CLR,SCT,0.00,WeatherDisplay:10.37,2013-06-01 17:43:00,
2013-06-01 13:46:00,85.3,63.4,29.87,SE,146,5.8,5.8,48,0.00,CLR,SCT,0.00,WeatherDisplay:10.37,2013-06-01 17:46:00,
2013-06-01 13:49:00,85.5,63.6,29.86,SE,146,0.0,0.2,48,0.00,CLR,SCT,0.00,WeatherDisplay:10.37,2013-06-01 17:49:00,
2013-06-01 13:52:00,85.7,63.1,29.87,SW,216,8.1,8.1,47,0.00,CLR,SCT,0.00,WeatherDisplay:10.37,2013-06-01 17:52:00,
2013-06-01 13:54:00,85.7,62.5,29.87,SW,225,3.5,3.5,46,0.00,CLR,SCT,0.00,WeatherDisplay:10.37,2013-06-01 17:54:00,
2013-06-01 13:56:00,85.9,63.3,29.86,WSW,249,2.3,2.3,47,0.00,CLR,SCT,0.00,WeatherDisplay:10.37,2013-06-01 17:56:00,
2013-06-01 13:58:00,85.9,62.7,29.86,West,263,3.5,3.5,46,0.00,CLR,SCT,0.00,WeatherDisplay:10.37,2013-06-01 17:58:00,
2013-06-01 14:01:00,85.9,62.7,29.86,WSW,256,3.5,0.0,46,0.00,CLR,SCT,0.00,WeatherDisplay:10.37,2013-06-01 18:01:00,
2013-06-01 14:02:00,85.9,62.7,29.86,WSW,254,1.1,1.1,46,0.00,CLR,SCT,0.00,WeatherDisplay:10.37,2013-06-01 18:02:00,
2013-06-01 14:04:00,85.9,62.7,29.86,WSW,254,3.5,3.5,46,0.00,CLR,SCT,0.00,WeatherDisplay:10.37,2013-06-01 18:04:00,
2013-06-01 14:07:00,85.9,62.7,29.86,SW,215,3.5,3.5,46,0.00,CLR,SCT,0.00,WeatherDisplay:10.37,2013-06-01 18:07:00,
2013-06-01 14:09:00,86.1,62.9,29.86,SW,229,4.0,4.0,46,0.00,CLR,SCT,0.00,WeatherDisplay:10.37,2013-06-01 18:09:00,
2013-06-01 14:11:00,86.1,62.9,29.86,SW,219,4.6,4.6,46,0.00,CLR,SCT,0.00,WeatherDisplay:10.37,2013-06-01 18:11:00,
2013-06-01 14:12:00,86.1,62.9,29.86,SW,226,3.5,4.7,46,0.00,CLR,SCT,0.00,WeatherDisplay:10.37,2013-06-01 18:12:00,
2013-06-01 14:16:00,86.3,63.1,29.86,WSW,240,1.1,1.1,46,0.00,CLR,SCT,0.00,WeatherDisplay:10.37,2013-06-01 18:16:00,
2013-06-01 14:17:00,86.3,63.1,29.85,WSW,247,3.5,3.5,46,0.00,CLR,SCT,0.00,WeatherDisplay:10.37,2013-06-01 18:17:00,
2013-06-01 14:18:00,86.3,63.1,29.85,WSW,247,4.6,4.6,46,0.00,CLR,SCT,0.00,WeatherDisplay:10.37,2013-06-01 18:18:00,
2013-06-01 14:20:00,86.3,63.1,29.85,SW,223,5.8,5.8,46,0.00,CLR,SCT,0.00,WeatherDisplay:10.37,2013-06-01 18:20:00,
2013-06-01 14:22:00,86.3,62.5,29.85,WSW,257,7.0,7.0,45,0.00,CLR,SCT,0.00,WeatherDisplay:10.37,2013-06-01 18:22:00,
2013-06-01 14:23:00,86.1,62.3,29.85,WSW,254,10.4,10.4,45,0.00,CLR,SCT,0.00,WeatherDisplay:10.37,2013-06-01 18:23:00,
2013-06-01 14:25:00,86.1,62.3,29.85,West,275,6.9,6.9,45,0.00,CLR,SCT,0.00,WeatherDisplay:10.37,2013-06-01 18:25:00,
2013-06-01 14:28:00,86.1,62.3,29.85,SSE,151,6.0,6.0,45,0.00,CLR,SCT,0.00,WeatherDisplay:10.37,2013-06-01 18:28:00,
2013-06-01 14:29:00,86.1,62.3,29.85,SSE,151,10.4,10.4,45,0.00,CLR,SCT,0.00,WeatherDisplay:10.37,2013-06-01 18:29:00,
2013-06-01 14:31:00,85.9,62.1,29.85,SSE,151,4.6,4.6,45,0.00,CLR,SCT,0.00,WeatherDisplay:10.37,2013-06-01 18:31:00,
2013-06-01 14:32:00,85.9,62.1,29.85,SSE,151,4.6,4.6,45,0.00,CLR,SCT,0.00,WeatherDisplay:10.37,2013-06-01 18:32:00,
2013-06-01 14:33:00,85.9,62.1,29.85,SSE,151,2.3,2.3,45,0.00,CLR,SCT,0.00,WeatherDisplay:10.37,2013-06-01 18:33:00,
2013-06-01 14:34:00,86.1,61.6,29.85,SSE,151,2.3,2.3,44,0.00,CLR,SCT,0.00,WeatherDisplay:10.37,2013-06-01 18:34:00,
2013-06-01 14:35:00,86.1,62.3,29.85,SSE,151,3.5,3.5,45,0.00,CLR,SCT,0.00,WeatherDisplay:10.37,2013-06-01 18:35:00,
2013-06-01 14:37:00,86.1,62.3,29.85,SSE,151,2.3,2.3,45,0.00,CLR,SCT,0.00,WeatherDisplay:10.37,2013-06-01 18:37:00,
2013-06-01 14:38:00,86.3,62.5,29.85,SW,223,5.0,5.0,45,0.00,CLR,SCT,0.00,WeatherDisplay:10.37,2013-06-01 18:38:00,
2013-06-01 14:42:00,86.5,62.0,29.85,SSE,157,6.9,6.9,44,0.00,CLR,SCT,0.00,WeatherDisplay:10.37,2013-06-01 18:42:00,
2013-06-01 14:43:00,86.5,62.0,29.84,SSE,157,2.3,2.3,44,0.00,CLR,SCT,0.00,WeatherDisplay:10.37,2013-06-01 18:43:00,
2013-06-01 14:44:00,86.5,62.0,29.84,WSW,250,4.0,4.0,44,0.00,CLR,SCT,0.00,WeatherDisplay:10.37,2013-06-01 18:44:00,
2013-06-01 14:47:00,86.7,62.2,29.84,SW,228,3.5,3.5,44,0.00,CLR,SCT,0.00,WeatherDisplay:10.37,2013-06-01 18:47:00,
2013-06-01 14:48:00,86.7,62.2,29.84,SSW,205,5.0,5.0,44,0.00,CLR,SCT,0.00,WeatherDisplay:10.37,2013-06-01 18:48:00,
2013-06-01 14:49:00,86.7,61.5,29.84,SSW,205,4.6,4.6,43,0.00,CLR,SCT,0.00,WeatherDisplay:10.37,2013-06-01 18:49:00,
2013-06-01 14:50:00,86.7,62.2,29.84,SSW,202,4.6,4.6,44,0.00,CLR,SCT,0.00,WeatherDisplay:10.37,2013-06-01 18:50:00,
2013-06-01 14:52:00,86.7,60.9,29.84,SSW,203,3.5,3.5,42,0.00,CLR,SCT,0.00,WeatherDisplay:10.37,2013-06-01 18:52:00,
2013-06-01 14:57:00,87.0,61.8,29.84,South,184,4.6,4.6,43,0.00,CLR,SCT,0.00,WeatherDisplay:10.37,2013-06-01 18:57:00,
2013-06-01 14:58:00,87.0,61.8,29.84,South,188,2.3,2.3,43,0.00,CLR,SCT,0.00,WeatherDisplay:10.37,2013-06-01 18:58:00,
2013-06-01 14:59:00,87.0,61.8,29.84,SE,146,11.0,11.0,43,0.00,CLR,SCT,0.00,WeatherDisplay:10.37,2013-06-01 18:59:00,
2013-06-01 15:00:00,87.0,61.8,29.84,SE,146,11.5,11.5,43,0.00,CLR,SCT,0.00,WeatherDisplay:10.37,2013-06-01 19:00:00,
2013-06-01 15:03:00,87.2,61.3,29.84,SE,130,11.5,11.5,42,0.00,CLR,SCT,0.00,WeatherDisplay:10.37,2013-06-01 19:03:00,
2013-06-01 15:04:00,87.2,61.3,29.84,SSE,149,11.5,11.5,42,0.00,CLR,SCT,0.00,WeatherDisplay:10.37,2013-06-01 19:04:00,
2013-06-01 15:05:00,87.2,61.3,29.84,SSE,150,11.5,11.5,42,0.00,CLR,SCT,0.00,WeatherDisplay:10.37,2013-06-01 19:05:00,
2013-06-01 15:09:00,87.2,61.3,29.84,SW,214,10.4,10.4,42,0.00,,SCT,0.00,WeatherDisplay:10.37,2013-06-01 19:09:00,
2013-06-01 15:10:00,87.2,61.3,29.84,SSW,203,11.5,11.5,42,0.00,,SCT,0.00,WeatherDisplay:10.37,2013-06-01 19:10:00,
2013-06-01 15:12:00,87.2,60.6,29.84,SW,230,5.8,5.8,41,0.00,,SCT,0.00,WeatherDisplay:10.37,2013-06-01 19:12:00,
2013-06-01 15:15:00,87.2,61.3,29.84,SSE,154,9.2,9.2,42,0.00,,SCT,0.00,WeatherDisplay:10.37,2013-06-01 19:15:00,
2013-06-01 15:17:00,87.2,61.3,29.84,SSW,201,9.2,9.2,42,0.00,,SCT,0.00,WeatherDisplay:10.37,2013-06-01 19:17:00,
2013-06-01 15:18:00,87.2,61.3,29.84,SSW,201,3.5,0.0,42,0.00,,SCT,0.00,WeatherDisplay:10.37,2013-06-01 19:18:00,
2013-06-01 15:19:00,87.2,62.0,29.84,SSW,202,1.0,0.0,43,0.00,,SCT,0.00,WeatherDisplay:10.37,2013-06-01 19:19:00,
2013-06-01 15:22:00,87.4,62.2,29.84,SSW,196,0.0,0.0,43,0.00,,SCT,0.00,WeatherDisplay:10.37,2013-06-01 19:22:00,
2013-06-01 15:25:00,87.6,61.7,29.83,WSW,253,9.2,9.2,42,0.00,,SCT,0.00,WeatherDisplay:10.37,2013-06-01 19:25:00,
2013-06-01 15:26:00,87.6,61.7,29.83,SW,225,6.9,6.9,42,0.00,,SCT,0.00,WeatherDisplay:10.37,2013-06-01 19:26:00,
2013-06-01 15:27:00,87.6,61.7,29.83,SW,227,3.5,3.5,42,0.00,,SCT,0.00,WeatherDisplay:10.37,2013-06-01 19:27:00,
2013-06-01 15:28:00,87.6,61.7,29.83,SSW,211,4.0,4.0,42,0.00,,SCT,0.00,WeatherDisplay:10.37,2013-06-01 19:28:00,
2013-06-01 15:30:00,87.6,61.7,29.83,SSW,207,4.6,4.6,42,0.00,,SCT,0.00,WeatherDisplay:10.37,2013-06-01 19:30:00,
2013-06-01 15:31:00,87.6,61.0,29.83,South,179,5.8,5.8,41,0.00,,SCT,0.00,WeatherDisplay:10.37,2013-06-01 19:31:00,
2013-06-01 15:33:00,87.4,60.8,29.83,SW,229,10.4,10.4,41,0.00,,SCT,0.00,WeatherDisplay:10.37,2013-06-01 19:33:00,
2013-06-01 15:35:00,87.4,60.8,29.83,SW,236,9.2,9.2,41,0.00,,SCT,0.00,WeatherDisplay:10.37,2013-06-01 19:35:00,
2013-06-01 15:36:00,87.4,60.8,29.83,SW,232,11.5,11.5,41,0.00,,SCT,0.00,WeatherDisplay:10.37,2013-06-01 19:36:00,
2013-06-01 15:38:00,87.2,60.6,29.83,SSW,194,3.5,3.5,41,0.00,,SCT,0.00,WeatherDisplay:10.37,2013-06-01 19:38:00,
2013-06-01 15:40:00,87.2,60.6,29.83,SSW,195,6.9,6.9,41,0.00,,SCT,0.00,WeatherDisplay:10.37,2013-06-01 19:40:00,
2013-06-01 15:41:00,87.4,61.5,29.83,SSW,196,11.5,11.5,42,0.00,,SCT,0.00,WeatherDisplay:10.37,2013-06-01 19:41:00,
2013-06-01 15:42:00,87.4,61.5,29.83,South,184,5.8,5.8,42,0.00,,SCT,0.00,WeatherDisplay:10.37,2013-06-01 19:42:00,
2013-06-01 15:43:00,87.4,60.8,29.83,South,184,3.5,0.0,41,0.00,,SCT,0.00,WeatherDisplay:10.37,2013-06-01 19:43:00,
2013-06-01 15:45:00,87.6,61.7,29.83,SSE,156,2.3,2.3,42,0.00,,SCT,0.00,WeatherDisplay:10.37,2013-06-01 19:45:00,
2013-06-01 15:47:00,87.6,61.0,29.83,SSE,156,9.2,9.2,41,0.00,,SCT,0.00,WeatherDisplay:10.37,2013-06-01 19:47:00,
2013-06-01 15:48:00,87.6,61.0,29.83,SSW,201,2.3,2.3,41,0.00,,SCT,0.00,WeatherDisplay:10.37,2013-06-01 19:48:00,
2013-06-01 15:51:00,87.8,60.5,29.83,West,266,4.6,4.6,40,0.00,,SCT,0.00,WeatherDisplay:10.37,2013-06-01 19:51:00,
2013-06-01 15:53:00,87.8,59.8,29.83,SSE,160,11.5,11.5,39,0.00,,SCT,0.00,WeatherDisplay:10.37,2013-06-01 19:53:00,
2013-06-01 15:55:00,87.8,60.5,29.83,WSW,245,4.6,4.6,40,0.00,,SCT,0.00,WeatherDisplay:10.37,2013-06-01 19:55:00,
2013-06-01 15:56:00,87.8,60.5,29.83,SW,227,7.0,7.0,40,0.00,,SCT,0.00,WeatherDisplay:10.37,2013-06-01 19:56:00,
2013-06-01 15:57:00,87.8,60.5,29.83,WSW,247,6.9,6.9,40,0.00,,SCT,0.00,WeatherDisplay:10.37,2013-06-01 19:57:00,
2013-06-01 15:58:00,87.6,60.3,29.83,WSW,248,6.9,6.9,40,0.00,,SCT,0.00,WeatherDisplay:10.37,2013-06-01 19:58:00,
2013-06-01 16:02:00,87.8,61.2,29.82,SSW,200,2.3,2.6,41,0.00,,SCT,0.00,WeatherDisplay:10.37,2013-06-01 20:02:00,
2013-06-01 16:03:00,87.8,60.5,29.83,SW,215,10.4,10.4,40,0.00,,SCT,0.00,WeatherDisplay:10.37,2013-06-01 20:03:00,
2013-06-01 16:05:00,87.8,59.0,29.83,South,176,15.0,15.0,38,0.00,,SCT,0.00,WeatherDisplay:10.37,2013-06-01 20:05:00,
2013-06-01 16:06:00,87.8,59.0,29.83,SSW,211,15.0,15.0,38,0.00,,SCT,0.00,WeatherDisplay:10.37,2013-06-01 20:06:00,
2013-06-01 16:07:00,87.8,59.8,29.83,SSW,204,8.1,8.1,39,0.00,,SCT,0.00,WeatherDisplay:10.37,2013-06-01 20:07:00,
2013-06-01 16:08:00,87.6,59.6,29.83,WSW,254,6.0,6.0,39,0.00,,SCT,0.00,WeatherDisplay:10.37,2013-06-01 20:08:00,
2013-06-01 16:11:00,87.6,60.3,29.83,SW,227,3.0,3.0,40,0.00,,SCT,0.00,WeatherDisplay:10.37,2013-06-01 20:11:00,
2013-06-01 16:12:00,87.6,59.6,29.83,SW,226,3.5,3.5,39,0.00,,SCT,0.00,WeatherDisplay:10.37,2013-06-01 20:12:00,
2013-06-01 16:14:00,87.8,59.8,29.83,SSE,167,3.0,3.0,39,0.00,,SCT,0.00,WeatherDisplay:10.37,2013-06-01 20:14:00,
2013-06-01 16:16:00,87.8,59.8,29.83,SSE,147,11.5,11.5,39,0.00,,SCT,0.00,WeatherDisplay:10.37,2013-06-01 20:16:00,
2013-06-01 16:17:00,87.8,59.8,29.83,SSE,163,11.5,11.5,39,0.00,,SCT,0.00,WeatherDisplay:10.37,2013-06-01 20:17:00,
2013-06-01 16:18:00,87.6,59.6,29.83,SSE,158,11.5,11.5,39,0.00,,SCT,0.00,WeatherDisplay:10.37,2013-06-01 20:18:00,
2013-06-01 16:19:00,87.6,59.6,29.83,SE,135,11.5,11.5,39,0.00,,SCT,0.00,WeatherDisplay:10.37,2013-06-01 20:19:00,
2013-06-01 16:20:00,87.6,59.6,29.83,ESE,120,11.5,11.5,39,0.00,,SCT,0.00,WeatherDisplay:10.37,2013-06-01 20:20:00,
2013-06-01 16:21:00,87.6,59.6,29.83,SE,144,10.4,10.4,39,0.00,,SCT,0.00,WeatherDisplay:10.37,2013-06-01 20:21:00,
2013-06-01 16:25:00,87.4,59.4,29.83,SE,134,10.4,10.4,39,0.00,,SCT,0.00,WeatherDisplay:10.37,2013-06-01 20:25:00,
2013-06-01 16:27:00,87.4,59.4,29.83,SSE,155,9.2,9.2,39,0.00,,SCT,0.00,WeatherDisplay:10.37,2013-06-01 20:27:00,
2013-06-01 16:28:00,87.4,58.7,29.84,SSE,155,12.7,12.7,38,0.00,,SCT,0.00,WeatherDisplay:10.37,2013-06-01 20:28:00,
2013-06-01 16:30:00,87.2,58.5,29.83,South,173,16.1,16.1,38,0.00,,SCT,0.00,WeatherDisplay:10.37,2013-06-01 20:30:00,
2013-06-01 16:31:00,87.2,58.5,29.83,SSE,168,15.0,15.0,38,0.00,,SCT,0.00,WeatherDisplay:10.37,2013-06-01 20:31:00,
2013-06-01 16:33:00,87.0,59.0,29.83,SSE,149,10.4,10.4,39,0.00,,SCT,0.00,WeatherDisplay:10.37,2013-06-01 20:33:00,
2013-06-01 16:34:00,87.0,59.0,29.83,SE,144,12.7,12.7,39,0.00,,SCT,0.00,WeatherDisplay:10.37,2013-06-01 20:34:00,
2013-06-01 16:35:00,86.7,58.8,29.84,SSE,147,10.4,10.4,39,0.00,,SCT,0.00,WeatherDisplay:10.37,2013-06-01 20:35:00,
2013-06-01 16:38:00,86.7,58.8,29.84,SSE,158,13.8,13.8,39,0.00,,SCT,0.00,WeatherDisplay:10.37,2013-06-01 20:38:00,
2013-06-01 16:39:00,86.7,58.8,29.84,SE,145,11.5,11.5,39,0.00,,SCT,0.00,WeatherDisplay:10.37,2013-06-01 20:39:00,
2013-06-01 16:40:00,86.5,58.6,29.84,SE,126,15.0,15.0,39,0.00,,SCT,0.00,WeatherDisplay:10.37,2013-06-01 20:40:00,
2013-06-01 16:41:00,86.5,58.6,29.84,SE,128,11.5,11.5,39,0.00,,SCT,0.00,WeatherDisplay:10.37,2013-06-01 20:41:00,
2013-06-01 16:43:00,86.5,58.6,29.84,SE,142,12.0,12.0,39,0.00,,SCT,0.00,WeatherDisplay:10.37,2013-06-01 20:43:00,
2013-06-01 16:45:00,86.5,58.6,29.83,SSE,148,16.1,16.1,39,0.00,,SCT,0.00,WeatherDisplay:10.37,2013-06-01 20:45:00,
2013-06-01 16:47:00,86.3,58.4,29.83,SE,132,10.4,10.4,39,0.00,,SCT,0.00,WeatherDisplay:10.37,2013-06-01 20:47:00,
2013-06-01 16:48:00,86.3,58.4,29.83,SSE,161,12.0,12.0,39,0.00,,SCT,0.00,WeatherDisplay:10.37,2013-06-01 20:48:00,
2013-06-01 16:49:00,86.1,58.2,29.83,SE,144,11.5,11.5,39,0.00,,SCT,0.00,WeatherDisplay:10.37,2013-06-01 20:49:00,
2013-06-01 16:51:00,85.9,58.1,29.83,SE,142,13.8,13.8,39,0.00,,SCT,0.00,WeatherDisplay:10.37,2013-06-01 20:51:00,
2013-06-01 16:55:00,85.9,58.8,29.83,SSE,147,7.0,7.0,40,0.00,,SCT,0.00,WeatherDisplay:10.37,2013-06-01 20:55:00,
2013-06-01 16:56:00,85.9,58.8,29.83,South,175,6.9,6.9,40,0.00,,SCT,0.00,WeatherDisplay:10.37,2013-06-01 20:56:00,
2013-06-01 16:57:00,85.9,58.8,29.83,SE,138,8.1,8.1,40,0.00,,SCT,0.00,WeatherDisplay:10.37,2013-06-01 20:57:00,
2013-06-01 16:59:00,85.9,58.8,29.83,SE,135,10.4,10.4,40,0.00,,SCT,0.00,WeatherDisplay:10.37,2013-06-01 20:59:00,
2013-06-01 17:01:00,85.9,59.5,29.83,SE,138,3.5,3.5,41,0.00,,SCT,0.00,WeatherDisplay:10.37,2013-06-01 21:01:00,
2013-06-01 17:04:00,85.9,58.8,29.83,SSE,161,18.4,18.4,40,0.00,,SCT,0.00,WeatherDisplay:10.37,2013-06-01 21:04:00,
2013-06-01 17:08:00,85.7,58.6,29.84,SSE,151,13.8,13.8,40,0.00,CLR,SCT,0.00,WeatherDisplay:10.37,2013-06-01 21:08:00,
2013-06-01 17:09:00,85.7,58.6,29.84,SSE,158,15.0,15.0,40,0.00,CLR,SCT,0.00,WeatherDisplay:10.37,2013-06-01 21:09:00,
2013-06-01 17:10:00,85.7,58.6,29.84,SSW,202,15.0,15.0,40,0.00,CLR,SCT,0.00,WeatherDisplay:10.37,2013-06-01 21:10:00,
2013-06-01 17:13:00,85.5,58.4,29.84,SSE,154,13.8,13.8,40,0.00,CLR,SCT,0.00,WeatherDisplay:10.37,2013-06-01 21:13:00,
2013-06-01 17:14:00,85.5,59.1,29.84,SSE,155,10.4,10.4,41,0.00,CLR,SCT,0.00,WeatherDisplay:10.37,2013-06-01 21:14:00,
2013-06-01 17:17:00,85.5,59.1,29.84,SSE,148,9.2,9.2,41,0.00,CLR,SCT,0.00,WeatherDisplay:10.37,2013-06-01 21:17:00,
2013-06-01 17:18:00,85.5,59.1,29.84,South,178,11.0,11.0,41,0.00,CLR,SCT,0.00,WeatherDisplay:10.37,2013-06-01 21:18:00,
2013-06-01 17:20:00,85.5,59.1,29.83,South,171,11.5,11.5,41,0.00,CLR,SCT,0.00,WeatherDisplay:10.37,2013-06-01 21:20:00,
2013-06-01 17:24:00,85.3,58.9,29.83,SE,134,6.9,6.9,41,0.00,CLR,SCT,0.00,WeatherDisplay:10.37,2013-06-01 21:24:00,
2013-06-01 17:26:00,85.3,58.9,29.83,South,173,13.8,13.8,41,0.00,CLR,SCT,0.00,WeatherDisplay:10.37,2013-06-01 21:26:00,
2013-06-01 17:29:00,85.3,58.9,29.83,SW,236,11.5,11.5,41,0.00,CLR,SCT,0.00,WeatherDisplay:10.37,2013-06-01 21:29:00,
2013-06-01 17:30:00,85.3,59.6,29.83,SW,217,10.4,10.4,42,0.00,CLR,SCT,0.00,WeatherDisplay:10.37,2013-06-01 21:30:00,
2013-06-01 17:32:00,85.3,58.9,29.83,South,183,4.6,4.6,41,0.00,CLR,SCT,0.00,WeatherDisplay:10.37,2013-06-01 21:32:00,
2013-06-01 17:34:00,85.3,58.9,29.83,SSW,211,11.0,11.0,41,0.00,CLR,SCT,0.00,WeatherDisplay:10.37,2013-06-01 21:34:00,
2013-06-01 17:35:00,85.3,59.6,29.83,SSW,198,15.0,15.0,42,0.00,CLR,SCT,0.00,WeatherDisplay:10.37,2013-06-01 21:35:00,
2013-06-01 17:36:00,85.3,58.9,29.83,SSE,165,11.5,11.5,41,0.00,CLR,SCT,0.00,WeatherDisplay:10.37,2013-06-01 21:36:00,
2013-06-01 17:37:00,85.3,58.9,29.83,SSE,157,16.1,16.1,41,0.00,CLR,SCT,0.00,WeatherDisplay:10.37,2013-06-01 21:37:00,
2013-06-01 17:38:00,85.3,58.9,29.83,SSE,152,11.5,11.5,41,0.00,CLR,SCT,0.00,WeatherDisplay:10.37,2013-06-01 21:38:00,
2013-06-01 17:40:00,85.1,58.8,29.83,SSE,165,16.1,16.1,41,0.00,CLR,SCT,0.00,WeatherDisplay:10.37,2013-06-01 21:40:00,
2013-06-01 17:41:00,85.1,58.8,29.83,South,175,17.3,17.3,41,0.00,CLR,SCT,0.00,WeatherDisplay:10.37,2013-06-01 21:41:00,
2013-06-01 17:43:00,84.9,58.6,29.83,SSE,162,16.1,16.1,41,0.00,CLR,SCT,0.00,WeatherDisplay:10.37,2013-06-01 21:43:00,
2013-06-01 17:44:00,84.9,58.6,29.83,WSW,243,9.2,9.2,41,0.00,CLR,SCT,0.00,WeatherDisplay:10.37,2013-06-01 21:44:00,
2013-06-01 17:48:00,84.7,59.1,29.83,South,176,3.5,3.5,42,0.00,CLR,SCT,0.00,WeatherDisplay:10.37,2013-06-01 21:48:00,
2013-06-01 17:49:00,84.7,59.1,29.83,South,174,10.0,10.0,42,0.00,CLR,SCT,0.00,WeatherDisplay:10.37,2013-06-01 21:49:00,
2013-06-01 17:51:00,84.7,59.1,29.83,SE,139,10.4,10.4,42,0.00,CLR,SCT,0.00,WeatherDisplay:10.37,2013-06-01 21:51:00,
2013-06-01 17:53:00,84.7,59.1,29.83,SE,140,10.4,10.4,42,0.00,CLR,SCT,0.00,WeatherDisplay:10.37,2013-06-01 21:53:00,
2013-06-01 17:54:00,84.7,59.1,29.83,SE,140,10.4,10.4,42,0.00,CLR,SCT,0.00,WeatherDisplay:10.37,2013-06-01 21:54:00,
2013-06-01 17:55:00,84.7,59.1,29.83,SE,139,10.4,10.4,42,0.00,CLR,SCT,0.00,WeatherDisplay:10.37,2013-06-01 21:55:00,
2013-06-01 17:57:00,84.7,59.1,29.83,SSE,167,11.0,11.0,42,0.00,CLR,SCT,0.00,WeatherDisplay:10.37,2013-06-01 21:57:00,
2013-06-01 18:01:00,84.3,58.7,29.83,SE,144,12.7,12.7,42,0.00,CLR,SCT,0.00,WeatherDisplay:10.37,2013-06-01 22:01:00,
2013-06-01 18:02:00,84.3,58.7,29.83,South,190,12.0,12.0,42,0.00,CLR,SCT,0.00,WeatherDisplay:10.37,2013-06-01 22:02:00,
2013-06-01 18:05:00,84.1,59.2,29.83,SE,146,11.5,11.5,43,0.00,CLR,SCT,0.00,WeatherDisplay:10.37,2013-06-01 22:05:00,
2013-06-01 18:06:00,84.1,59.2,29.83,South,173,11.5,11.5,43,0.00,CLR,SCT,0.00,WeatherDisplay:10.37,2013-06-01 22:06:00,
2013-06-01 18:07:00,84.1,59.2,29.83,South,172,11.5,11.5,43,0.00,CLR,SCT,0.00,WeatherDisplay:10.37,2013-06-01 22:07:00,
2013-06-01 18:11:00,84.3,59.4,29.83,SSE,154,0.0,0.5,43,0.00,CLR,SCT,0.00,WeatherDisplay:10.37,2013-06-01 22:11:00,
2013-06-01 18:12:00,84.3,59.4,29.83,SSE,151,4.0,4.0,43,0.00,CLR,SCT,0.00,WeatherDisplay:10.37,2013-06-01 22:12:00,
2013-06-01 18:13:00,84.3,59.4,29.83,SSE,151,6.9,6.9,43,0.00,CLR,SCT,0.00,WeatherDisplay:10.37,2013-06-01 22:13:00,
2013-06-01 18:14:00,84.3,59.4,29.83,SSE,151,3.5,3.5,43,0.00,CLR,SCT,0.00,WeatherDisplay:10.37,2013-06-01 22:14:00,
2013-06-01 18:15:00,84.3,59.4,29.83,SSE,151,1.1,1.1,43,0.00,CLR,SCT,0.00,WeatherDisplay:10.37,2013-06-01 22:15:00,
2013-06-01 18:17:00,84.5,59.5,29.83,SSE,157,6.0,6.0,43,0.00,CLR,SCT,0.00,WeatherDisplay:10.37,2013-06-01 22:17:00,
2013-06-01 18:19:00,84.5,59.5,29.83,South,186,5.8,5.8,43,0.00,CLR,SCT,0.00,WeatherDisplay:10.37,2013-06-01 22:19:00,
2013-06-01 18:21:00,84.5,59.5,29.83,SSE,150,4.6,4.6,43,0.00,CLR,SCT,0.00,WeatherDisplay:10.37,2013-06-01 22:21:00,
2013-06-01 18:22:00,84.5,59.5,29.83,SSW,199,5.8,5.8,43,0.00,CLR,SCT,0.00,WeatherDisplay:10.37,2013-06-01 22:22:00,
2013-06-01 18:23:00,84.7,59.7,29.83,SSE,166,5.8,5.8,43,0.00,CLR,SCT,0.00,WeatherDisplay:10.37,2013-06-01 22:23:00,
2013-06-01 18:27:00,84.5,59.5,29.83,South,182,5.0,5.0,43,0.00,CLR,SCT,0.00,WeatherDisplay:10.37,2013-06-01 22:27:00,
2013-06-01 18:28:00,84.5,59.5,29.83,South,181,3.5,3.5,43,0.00,CLR,SCT,0.00,WeatherDisplay:10.37,2013-06-01 22:28:00,
2013-06-01 18:29:00,84.5,59.5,29.83,SSE,162,3.5,3.5,43,0.00,CLR,SCT,0.00,WeatherDisplay:10.37,2013-06-01 22:29:00,
2013-06-01 18:30:00,84.5,59.5,29.83,SSE,162,3.5,0.0,43,0.00,CLR,SCT,0.00,WeatherDisplay:10.37,2013-06-01 22:30:00,
2013-06-01 18:31:00,84.5,59.5,29.83,SW,215,3.0,3.0,43,0.00,CLR,SCT,0.00,WeatherDisplay:10.37,2013-06-01 22:31:00,
2013-06-01 18:34:00,84.5,59.5,29.83,South,184,9.2,9.2,43,0.00,CLR,SCT,0.00,WeatherDisplay:10.37,2013-06-01 22:34:00,
2013-06-01 18:35:00,84.5,59.5,29.83,South,184,2.3,2.3,43,0.00,CLR,SCT,0.00,WeatherDisplay:10.37,2013-06-01 22:35:00,
2013-06-01 18:37:00,84.5,59.5,29.83,South,184,0.0,0.0,43,0.00,CLR,SCT,0.00,WeatherDisplay:10.37,2013-06-01 22:37:00,
2013-06-01 18:38:00,84.5,59.5,29.83,South,184,0.0,0.0,43,0.00,CLR,SCT,0.00,WeatherDisplay:10.37,2013-06-01 22:38:00,
2013-06-01 18:39:00,84.5,59.5,29.83,SW,229,3.5,3.5,43,0.00,CLR,SCT,0.00,WeatherDisplay:10.37,2013-06-01 22:39:00,
2013-06-01 18:42:00,84.5,59.5,29.83,SSE,157,3.5,3.5,43,0.00,CLR,SCT,0.00,WeatherDisplay:10.37,2013-06-01 22:42:00,
2013-06-01 18:44:00,84.5,59.5,29.82,SSE,154,3.5,3.5,43,0.00,CLR,SCT,0.00,WeatherDisplay:10.37,2013-06-01 22:44:00,
2013-06-01 18:45:00,84.5,59.5,29.82,South,182,9.2,9.2,43,0.00,CLR,SCT,0.00,WeatherDisplay:10.37,2013-06-01 22:45:00,
2013-06-01 18:46:00,84.5,59.5,29.82,South,182,3.5,3.5,43,0.00,CLR,SCT,0.00,WeatherDisplay:10.37,2013-06-01 22:46:00,
2013-06-01 18:50:00,84.3,59.4,29.82,South,173,1.0,1.0,43,0.00,CLR,SCT,0.00,WeatherDisplay:10.37,2013-06-01 22:50:00,
2013-06-01 18:51:00,84.3,59.4,29.82,SSE,165,9.0,9.0,43,0.00,CLR,SCT,0.00,WeatherDisplay:10.37,2013-06-01 22:51:00,
2013-06-01 18:52:00,84.3,59.4,29.82,SE,138,10.0,10.0,43,0.00,CLR,SCT,0.00,WeatherDisplay:10.37,2013-06-01 22:52:00,
2013-06-01 18:53:00,84.3,59.4,29.82,SE,136,12.7,12.7,43,0.00,CLR,SCT,0.00,WeatherDisplay:10.37,2013-06-01 22:53:00,
2013-06-01 18:55:00,84.1,59.2,29.82,SE,136,13.8,13.8,43,0.00,CLR,SCT,0.00,WeatherDisplay:10.37,2013-06-01 22:55:00,
2013-06-01 18:58:00,84.0,59.1,29.82,SW,217,11.5,11.5,43,0.00,CLR,SCT,0.00,WeatherDisplay:10.37,2013-06-01 22:58:00,
2013-06-01 18:59:00,83.8,58.9,29.82,SW,215,8.1,8.1,43,0.00,CLR,SCT,0.00,WeatherDisplay:10.37,2013-06-01 22:59:00,
2013-06-01 19:00:00,83.8,58.9,29.82,SSW,205,6.9,6.9,43,0.00,CLR,SCT,0.00,WeatherDisplay:10.37,2013-06-01 23:00:00,
2013-06-01 19:03:00,83.6,58.7,29.82,South,175,10.4,10.4,43,0.00,CLR,SCT,0.00,WeatherDisplay:10.37,2013-06-01 23:03:00,
2013-06-01 19:04:00,83.4,58.6,29.82,SSW,198,10.4,10.4,43,0.00,CLR,SCT,0.00,WeatherDisplay:10.37,2013-06-01 23:04:00,
2013-06-01 19:06:00,83.4,59.2,29.81,SSE,167,9.2,9.2,44,0.00,CLR,SCT,0.00,WeatherDisplay:10.37,2013-06-01 23:06:00,
2013-06-01 19:07:00,83.4,59.2,29.81,SSE,167,5.8,5.8,44,0.00,CLR,SCT,0.00,WeatherDisplay:10.37,2013-06-01 23:07:00,
2013-06-01 19:09:00,83.2,59.0,29.81,SE,138,15.0,15.0,44,0.00,CLR,SCT,0.00,WeatherDisplay:10.37,2013-06-01 23:09:00,
2013-06-01 19:11:00,83.0,58.8,29.81,SSW,213,9.2,9.2,44,0.00,CLR,SCT,0.00,WeatherDisplay:10.37,2013-06-01 23:11:00,
2013-06-01 19:12:00,83.0,58.8,29.81,WSW,244,9.2,9.2,44,0.00,CLR,SCT,0.00,WeatherDisplay:10.37,2013-06-01 23:12:00,
2013-06-01 19:14:00,82.8,58.7,29.81,South,177,9.2,9.2,44,0.00,CLR,SCT,0.00,WeatherDisplay:10.37,2013-06-01 23:14:00,
2013-06-01 19:17:00,82.8,59.3,29.81,SSW,198,10.4,10.4,45,0.00,CLR,SCT,0.00,WeatherDisplay:10.37,2013-06-01 23:17:00,
2013-06-01 19:19:00,82.6,58.5,29.81,SW,215,8.1,8.1,44,0.00,CLR,SCT,0.00,WeatherDisplay:10.37,2013-06-01 23:19:00,
2013-06-01 19:20:00,82.6,58.5,29.81,South,184,12.7,12.7,44,0.00,CLR,SCT,0.00,WeatherDisplay:10.37,2013-06-01 23:20:00,
2013-06-01 19:21:00,82.4,58.3,29.81,SSE,166,11.5,11.5,44,0.00,CLR,SCT,0.00,WeatherDisplay:10.37,2013-06-01 23:21:00,
2013-06-01 19:22:00,82.4,58.3,29.81,SSE,165,11.5,11.5,44,0.00,CLR,SCT,0.00,WeatherDisplay:10.37,2013-06-01 23:22:00,
2013-06-01 19:24:00,82.2,58.7,29.82,SSE,166,10.4,0.0,45,0.00,CLR,SCT,0.00,WeatherDisplay:10.37,2013-06-01 23:24:00,
2013-06-01 19:27:00,82.0,58.6,29.82,SSE,165,4.6,4.6,45,0.00,CLR,SCT,0.00,WeatherDisplay:10.37,2013-06-01 23:27:00,
2013-06-01 19:29:00,82.0,58.6,29.82,SSE,165,1.1,1.1,45,0.00,CLR,SCT,0.00,WeatherDisplay:10.37,2013-06-01 23:29:00,
2013-06-01 19:32:00,81.8,58.4,29.83,SSE,165,1.1,1.1,45,0.00,CLR,SCT,0.00,WeatherDisplay:10.37,2013-06-01 23:32:00,
2013-06-01 19:34:00,81.6,58.2,29.83,SSE,165,0.0,0.8,45,0.00,CLR,SCT,0.00,WeatherDisplay:10.37,2013-06-01 23:34:00,
2013-06-01 19:35:00,81.6,58.2,29.83,SSE,165,3.5,3.5,45,0.00,CLR,SCT,0.00,WeatherDisplay:10.37,2013-06-01 23:35:00,
2013-06-01 19:36:00,81.6,58.2,29.83,SSW,200,2.3,2.3,45,0.00,CLR,SCT,0.00,WeatherDisplay:10.37,2013-06-01 23:36:00,
2013-06-01 19:37:00,81.4,58.0,29.83,SSW,200,5.8,0.0,45,0.00,CLR,SCT,0.00,WeatherDisplay:10.37,2013-06-01 23:37:00,
2013-06-01 19:41:00,81.2,57.8,29.83,SSE,164,1.1,1.1,45,0.00,CLR,SCT,0.00,WeatherDisplay:10.37,2013-06-01 23:41:00,
2013-06-01 19:44:00,81.2,57.8,29.83,SSE,154,5.8,5.8,45,0.00,CLR,SCT,0.00,WeatherDisplay:10.37,2013-06-01 23:44:00,
2013-06-01 19:46:00,81.1,58.4,29.83,SSE,154,2.3,0.0,46,0.00,CLR,SCT,0.00,WeatherDisplay:10.37,2013-06-01 23:46:00,
2013-06-01 19:47:00,81.1,58.4,29.83,SSE,154,0.0,0.1,46,0.00,CLR,SCT,0.00,WeatherDisplay:10.37,2013-06-01 23:47:00,
2013-06-01 19:51:00,80.9,58.2,29.83,SE,132,5.8,5.8,46,0.00,CLR,SCT,0.00,WeatherDisplay:10.37,2013-06-01 23:51:00,
2013-06-01 19:52:00,80.9,58.2,29.83,SE,141,6.9,6.9,46,0.00,CLR,SCT,0.00,WeatherDisplay:10.37,2013-06-01 23:52:00,
2013-06-01 19:53:00,80.9,58.2,29.83,SSW,195,6.0,6.0,46,0.00,CLR,SCT,0.00,WeatherDisplay:10.37,2013-06-01 23:53:00,
2013-06-01 19:55:00,80.9,58.2,29.83,SSW,196,11.5,11.5,46,0.00,CLR,SCT,0.00,WeatherDisplay:10.37,2013-06-01 23:55:00,
2013-06-01 19:59:00,80.9,58.2,29.83,SW,221,3.5,3.5,46,0.00,CLR,SCT,0.00,WeatherDisplay:10.37,2013-06-01 23:59:00,
2013-06-01 20:00:00,80.7,58.0,29.83,WSW,242,6.0,6.5,46,0.00,CLR,SCT,0.00,WeatherDisplay:10.37,2013-06-02 00:00:00,
2013-06-01 20:01:00,80.7,58.0,29.83,SSE,152,11.5,11.5,46,0.00,CLR,SCT,0.00,WeatherDisplay:10.37,2013-06-02 00:01:00,
2013-06-01 20:04:00,80.7,58.0,29.83,SSE,163,10.4,10.4,46,0.00,CLR,SCT,0.00,WeatherDisplay:10.37,2013-06-02 00:04:00,
2013-06-01 20:06:00,80.5,58.4,29.82,WSW,246,5.8,5.8,47,0.00,CLR,SCT,0.00,WeatherDisplay:10.37,2013-06-02 00:06:00,
2013-06-01 20:07:00,80.5,58.4,29.82,WSW,248,6.9,6.9,47,0.00,CLR,SCT,0.00,WeatherDisplay:10.37,2013-06-02 00:07:00,
2013-06-01 20:08:00,80.5,58.4,29.82,South,182,6.9,6.9,47,0.00,CLR,SCT,0.00,WeatherDisplay:10.37,2013-06-02 00:08:00,
2013-06-01 20:09:00,80.5,58.4,29.82,South,189,3.5,3.5,47,0.00,CLR,SCT,0.00,WeatherDisplay:10.37,2013-06-02 00:09:00,
2013-06-01 20:11:00,80.3,58.2,29.82,South,189,0.0,0.0,47,0.00,CLR,SCT,0.00,WeatherDisplay:10.37,2013-06-02 00:11:00,
2013-06-01 20:13:00,80.3,58.2,29.82,South,189,1.1,1.1,47,0.00,CLR,SCT,0.00,WeatherDisplay:10.37,2013-06-02 00:13:00,
2013-06-01 20:14:00,80.3,58.2,29.82,South,189,0.0,0.0,47,0.00,CLR,SCT,0.00,WeatherDisplay:10.37,2013-06-02 00:14:00,
2013-06-01 20:16:00,80.1,58.0,29.82,South,184,1.1,1.1,47,0.00,CLR,SCT,0.00,WeatherDisplay:10.37,2013-06-02 00:16:00,
2013-06-01 20:17:00,80.1,58.0,29.82,South,184,0.0,0.0,47,0.00,CLR,SCT,0.00,WeatherDisplay:10.37,2013-06-02 00:17:00,
2013-06-01 20:18:00,80.1,58.0,29.82,South,184,0.0,0.0,47,0.00,CLR,SCT,0.00,WeatherDisplay:10.37,2013-06-02 00:18:00,
2013-06-01 20:20:00,79.9,57.9,29.82,West,267,2.3,2.3,47,0.00,CLR,SCT,0.00,WeatherDisplay:10.37,2013-06-02 00:20:00,
2013-06-01 20:21:00,79.9,58.5,29.82,South,189,3.5,3.5,48,0.00,CLR,SCT,0.00,WeatherDisplay:10.37,2013-06-02 00:21:00,
2013-06-01 20:25:00,79.8,58.4,29.82,SE,132,6.9,6.9,48,0.00,CLR,SCT,0.00,WeatherDisplay:10.37,2013-06-02 00:25:00,
2013-06-01 20:26:00,79.8,58.4,29.82,SW,218,11.5,11.5,48,0.00,CLR,SCT,0.00,WeatherDisplay:10.37,2013-06-02 00:26:00,
2013-06-01 20:29:00,79.6,58.2,29.83,SW,215,16.1,16.1,48,0.00,CLR,SCT,0.00,WeatherDisplay:10.37,2013-06-02 00:29:00,
2013-06-01 20:30:00,79.6,58.2,29.83,SSE,168,10.4,10.4,48,0.00,CLR,SCT,0.00,WeatherDisplay:10.37,2013-06-02 00:30:00,
2013-06-01 20:32:00,79.6,58.8,29.83,SSW,202,9.2,9.2,49,0.00,CLR,SCT,0.00,WeatherDisplay:10.37,2013-06-02 00:32:00,
2013-06-01 20:35:00,79.6,58.8,29.83,South,178,3.5,4.7,49,0.00,CLR,SCT,0.00,WeatherDisplay:10.37,2013-06-02 00:35:00,
2013-06-01 20:37:00,79.6,58.2,29.83,SE,134,9.0,9.0,48,0.00,CLR,SCT,0.00,WeatherDisplay:10.37,2013-06-02 00:37:00,
2013-06-01 20:38:00,79.6,58.8,29.83,SE,134,9.2,9.2,49,0.00,CLR,SCT,0.00,WeatherDisplay:10.37,2013-06-02 00:38:00,
2013-06-01 20:39:00,79.6,58.8,29.83,SW,234,3.5,3.5,49,0.00,CLR,SCT,0.00,WeatherDisplay:10.37,2013-06-02 00:39:00,
2013-06-01 20:41:00,79.6,58.8,29.83,SW,221,1.1,1.1,49,0.00,CLR,SCT,0.00,WeatherDisplay:10.37,2013-06-02 00:41:00,
2013-06-01 20:43:00,79.4,58.6,29.82,SSW,196,9.2,9.2,49,0.00,CLR,SCT,0.00,WeatherDisplay:10.37,2013-06-02 00:43:00,
2013-06-01 20:47:00,79.4,58.6,29.82,SSE,168,11.0,11.0,49,0.00,CLR,SCT,0.00,WeatherDisplay:10.37,2013-06-02 00:47:00,
2013-06-01 20:48:00,79.4,58.6,29.82,South,170,17.3,17.3,49,0.00,CLR,SCT,0.00,WeatherDisplay:10.37,2013-06-02 00:48:00,
2013-06-01 20:49:00,79.4,58.6,29.82,South,170,1.1,1.1,49,0.00,CLR,SCT,0.00,WeatherDisplay:10.37,2013-06-02 00:49:00,
2013-06-01 20:50:00,79.4,58.6,29.82,South,171,1.1,1.1,49,0.00,CLR,SCT,0.00,WeatherDisplay:10.37,2013-06-02 00:50:00,
2013-06-01 20:53:00,79.2,58.4,29.82,West,259,3.5,3.5,49,0.00,CLR,SCT,0.00,WeatherDisplay:10.37,2013-06-02 00:53:00,
2013-06-01 20:54:00,79.2,58.4,29.82,SW,215,3.5,3.5,49,0.00,CLR,SCT,0.00,WeatherDisplay:10.37,2013-06-02 00:54:00,
2013-06-01 20:55:00,79.2,59.0,29.83,SSW,198,3.5,3.5,50,0.00,CLR,SCT,0.00,WeatherDisplay:10.37,2013-06-02 00:55:00,
2013-06-01 20:56:00,79.2,58.4,29.83,SSW,198,2.3,2.3,49,0.00,CLR,SCT,0.00,WeatherDisplay:10.37,2013-06-02 00:56:00,
2013-06-01 20:58:00,79.0,58.2,29.83,SW,234,2.3,2.3,49,0.00,CLR,SCT,0.00,WeatherDisplay:10.37,2013-06-02 00:58:00,
2013-06-01 20:59:00,79.0,58.8,29.83,SW,236,3.5,3.5,50,0.00,CLR,SCT,0.00,WeatherDisplay:10.37,2013-06-02 00:59:00,
2013-06-01 21:00:00,79.0,58.8,29.83,West,265,3.5,3.5,50,0.00,CLR,SCT,0.00,WeatherDisplay:10.37,2013-06-02 01:00:00,
2013-06-01 21:01:00,79.0,58.8,29.83,SSW,208,5.0,5.0,50,0.00,,SCT,0.00,WeatherDisplay:10.37,2013-06-02 01:01:00,
2013-06-01 21:04:00,78.8,58.6,29.83,SSW,198,9.2,9.2,50,0.00,,SCT,0.00,WeatherDisplay:10.37,2013-06-02 01:04:00,
2013-06-01 21:05:00,78.8,58.6,29.83,SSW,205,10.0,10.0,50,0.00,,SCT,0.00,WeatherDisplay:10.37,2013-06-02 01:05:00,
2013-06-01 21:08:00,78.8,58.6,29.83,SW,229,11.5,11.5,50,0.00,,SCT,0.00,WeatherDisplay:10.37,2013-06-02 01:08:00,
2013-06-01 21:09:00,78.8,58.6,29.83,South,190,9.2,0.0,50,0.00,,SCT,0.00,WeatherDisplay:10.37,2013-06-02 01:09:00,
2013-06-01 21:11:00,78.8,58.6,29.83,SSW,194,6.9,6.9,50,0.00,,SCT,0.00,WeatherDisplay:10.37,2013-06-02 01:11:00,
2013-06-01 21:14:00,78.8,58.6,29.83,SSW,192,2.3,0.0,50,0.00,,SCT,0.00,WeatherDisplay:10.37,2013-06-02 01:14:00,
2013-06-01 21:16:00,78.8,58.6,29.83,SW,220,10.4,10.4,50,0.00,,SCT,0.00,WeatherDisplay:10.37,2013-06-02 01:16:00,
2013-06-01 21:18:00,78.8,58.6,29.83,SW,221,2.3,2.3,50,0.00,,SCT,0.00,WeatherDisplay:10.37,2013-06-02 01:18:00,
2013-06-01 21:22:00,78.6,58.4,29.83,SSW,195,5.0,5.0,50,0.00,,SCT,0.00,WeatherDisplay:10.37,2013-06-02 01:22:00,
2013-06-01 21:23:00,78.6,58.4,29.83,WSW,256,6.0,6.0,50,0.00,,SCT,0.00,WeatherDisplay:10.37,2013-06-02 01:23:00,
2013-06-01 21:27:00,78.6,58.4,29.84,SSE,158,11.5,11.5,50,0.00,,SCT,0.00,WeatherDisplay:10.37,2013-06-02 01:27:00,
2013-06-01 21:28:00,78.6,59.0,29.83,SSE,167,11.5,11.5,51,0.00,,SCT,0.00,WeatherDisplay:10.37,2013-06-02 01:28:00,
2013-06-01 21:29:00,78.6,59.0,29.83,SSW,199,5.8,5.8,51,0.00,,SCT,0.00,WeatherDisplay:10.37,2013-06-02 01:29:00,
2013-06-01 21:32:00,78.6,59.0,29.83,South,176,5.8,5.8,51,0.00,,SCT,0.00,WeatherDisplay:10.37,2013-06-02 01:32:00,
2013-06-01 21:33:00,78.6,59.0,29.83,SSW,200,5.8,5.8,51,0.00,,SCT,0.00,WeatherDisplay:10.37,2013-06-02 01:33:00,
2013-06-01 21:34:00,78.6,59.0,29.84,West,265,1.1,1.1,51,0.00,,SCT,0.00,WeatherDisplay:10.37,2013-06-02 01:34:00,
2013-06-01 21:38:00,78.6,59.0,29.84,SSW,209,2.0,2.0,51,0.00,,SCT,0.00,WeatherDisplay:10.37,2013-06-02 01:38:00,
2013-06-01 21:39:00,78.6,59.0,29.84,SSW,209,2.3,2.3,51,0.00,,SCT,0.00,WeatherDisplay:10.37,2013-06-02 01:39:00,
2013-06-01 21:43:00,78.5,58.9,29.84,South,172,9.2,9.2,51,0.00,,SCT,0.00,WeatherDisplay:10.37,2013-06-02 01:43:00,
2013-06-01 21:44:00,78.5,58.9,29.84,South,173,6.9,6.9,51,0.00,,SCT,0.00,WeatherDisplay:10.37,2013-06-02 01:44:00,
2013-06-01 21:45:00,78.5,58.9,29.84,South,173,6.9,6.9,51,0.00,,SCT,0.00,WeatherDisplay:10.37,2013-06-02 01:45:00,
2013-06-01 21:46:00,78.5,58.9,29.84,South,173,0.0,0.0,51,0.00,,SCT,0.00,WeatherDisplay:10.37,2013-06-02 01:46:00,
2013-06-01 21:49:00,78.5,58.9,29.84,SSW,207,3.5,3.5,51,0.00,,SCT,0.00,WeatherDisplay:10.37,2013-06-02 01:49:00,
2013-06-01 21:51:00,78.3,58.7,29.85,WSW,243,3.5,3.5,51,0.00,,SCT,0.00,WeatherDisplay:10.37,2013-06-02 01:51:00,
2013-06-01 21:52:00,78.3,58.7,29.85,South,185,3.5,3.5,51,0.00,,SCT,0.00,WeatherDisplay:10.37,2013-06-02 01:52:00,
2013-06-01 21:54:00,78.3,58.7,29.85,SSE,160,4.0,4.0,51,0.00,,SCT,0.00,WeatherDisplay:10.37,2013-06-02 01:54:00,
2013-06-01 21:57:00,78.3,59.2,29.85,SSE,156,5.8,5.8,52,0.00,,SCT,0.00,WeatherDisplay:10.37,2013-06-02 01:57:00,
2013-06-01 21:59:00,78.3,59.2,29.85,West,260,10.4,10.4,52,0.00,,SCT,0.00,WeatherDisplay:10.37,2013-06-02 01:59:00,
2013-06-01 22:00:00,78.3,59.2,29.85,SSE,150,10.4,10.4,52,0.00,,SCT,0.00,WeatherDisplay:10.37,2013-06-02 02:00:00,
2013-06-01 22:01:00,78.3,59.2,29.85,SSE,151,3.5,3.5,52,0.00,,SCT,0.00,WeatherDisplay:10.37,2013-06-02 02:01:00,
2013-06-01 22:02:00,78.3,59.2,29.85,South,188,5.8,5.8,52,0.00,,SCT,0.00,WeatherDisplay:10.37,2013-06-02 02:02:00,
2013-06-01 22:03:00,78.3,59.2,29.85,SSE,161,2.3,2.3,52,0.00,,SCT,0.00,WeatherDisplay:10.37,2013-06-02 02:03:00,
2013-06-01 22:06:00,78.3,59.2,29.84,SE,141,5.8,5.8,52,0.00,,SCT,0.00,WeatherDisplay:10.37,2013-06-02 02:06:00,
2013-06-01 22:08:00,78.1,59.0,29.85,South,189,2.3,2.3,52,0.00,,SCT,0.00,WeatherDisplay:10.37,2013-06-02 02:08:00,
2013-06-01 22:09:00,78.1,59.0,29.85,SSE,159,6.9,6.9,52,0.00,,SCT,0.00,WeatherDisplay:10.37,2013-06-02 02:09:00,
2013-06-01 22:10:00,78.1,59.0,29.85,SSE,159,6.9,6.9,52,0.00,,SCT,0.00,WeatherDisplay:10.37,2013-06-02 02:10:00,
2013-06-01 22:11:00,78.1,59.0,29.84,SW,234,2.0,2.0,52,0.00,,SCT,0.00,WeatherDisplay:10.37,2013-06-02 02:11:00,
2013-06-01 22:13:00,78.1,59.0,29.84,SSW,198,10.4,10.4,52,0.00,,SCT,0.00,WeatherDisplay:10.37,2013-06-02 02:13:00,
2013-06-01 22:15:00,78.1,59.0,29.84,SSE,152,4.6,4.6,52,0.00,,SCT,0.00,WeatherDisplay:10.37,2013-06-02 02:15:00,
2013-06-01 22:17:00,78.1,59.0,29.84,SE,140,0.0,0.0,52,0.00,,SCT,0.00,WeatherDisplay:10.37,2013-06-02 02:17:00,
2013-06-01 22:21:00,77.9,59.4,29.84,SE,135,5.8,5.8,53,0.00,,SCT,0.00,WeatherDisplay:10.37,2013-06-02 02:21:00,
2013-06-01 22:22:00,77.9,59.4,29.84,SE,136,5.0,5.0,53,0.00,,SCT,0.00,WeatherDisplay:10.37,2013-06-02 02:22:00,
2013-06-01 22:23:00,77.9,59.4,29.85,SSE,158,5.8,5.8,53,0.00,,SCT,0.00,WeatherDisplay:10.37,2013-06-02 02:23:00,
2013-06-01 22:24:00,77.9,59.4,29.85,South,186,1.1,1.1,53,0.00,,SCT,0.00,WeatherDisplay:10.37,2013-06-02 02:24:00,
2013-06-01 22:25:00,77.7,59.2,29.85,South,186,1.1,0.0,53,0.00,,SCT,0.00,WeatherDisplay:10.37,2013-06-02 02:25:00,
2013-06-01 22:29:00,77.7,59.2,29.85,South,186,0.0,0.0,53,0.00,,SCT,0.00,WeatherDisplay:10.37,2013-06-02 02:29:00,
2013-06-01 22:30:00,77.7,59.2,29.84,South,187,0.0,0.0,53,0.00,,SCT,0.00,WeatherDisplay:10.37,2013-06-02 02:30:00,
2013-06-01 22:31:00,77.6,59.1,29.84,South,186,0.0,0.0,53,0.00,,SCT,0.00,WeatherDisplay:10.37,2013-06-02 02:31:00,
2013-06-01 22:35:00,77.6,59.1,29.84,SSW,207,3.5,0.0,53,0.00,,SCT,0.00,WeatherDisplay:10.37,2013-06-02 02:35:00,
2013-06-01 22:36:00,77.6,59.1,29.84,SSW,207,0.0,0.0,53,0.00,,SCT,0.00,WeatherDisplay:10.37,2013-06-02 02:36:00,
2013-06-01 22:37:00,77.4,58.9,29.85,SSW,207,0.0,0.0,53,0.00,,SCT,0.00,WeatherDisplay:10.37,2013-06-02 02:37:00,
2013-06-01 22:40:00,77.4,58.9,29.85,WSW,244,3.5,3.5,53,0.00,,SCT,0.00,WeatherDisplay:10.37,2013-06-02 02:40:00,
2013-06-01 22:42:00,77.4,59.5,29.85,South,170,2.3,2.3,54,0.00,,SCT,0.00,WeatherDisplay:10.37,2013-06-02 02:42:00,
2013-06-01 22:45:00,77.2,59.3,29.85,South,178,1.1,0.0,54,0.00,,SCT,0.00,WeatherDisplay:10.37,2013-06-02 02:45:00,
2013-06-01 22:46:00,77.2,59.3,29.85,South,178,2.3,2.3,54,0.00,,SCT,0.00,WeatherDisplay:10.37,2013-06-02 02:46:00,
2013-06-01 22:47:00,77.2,59.3,29.85,South,178,1.1,0.0,54,0.00,,SCT,0.00,WeatherDisplay:10.37,2013-06-02 02:47:00,
2013-06-01 22:48:00,77.2,59.3,29.85,South,178,0.0,0.0,54,0.00,,SCT,0.00,WeatherDisplay:10.37,2013-06-02 02:48:00,
2013-06-01 22:50:00,77.2,59.3,29.85,South,178,0.0,0.0,54,0.00,,SCT,0.00,WeatherDisplay:10.37,2013-06-02 02:50:00,
2013-06-01 22:52:00,77.2,59.3,29.85,South,178,0.0,0.0,54,0.00,,SCT,0.00,WeatherDisplay:10.37,2013-06-02 02:52:00,
2013-06-01 22:54:00,77.0,59.1,29.85,South,178,0.0,0.0,54,0.00,,SCT,0.00,WeatherDisplay:10.37,2013-06-02 02:54:00,
2013-06-01 22:55:00,77.0,59.1,29.85,South,178,0.0,0.0,54,0.00,,SCT,0.00,WeatherDisplay:10.37,2013-06-02 02:55:00,
2013-06-01 22:57:00,77.0,59.1,29.85,South,178,0.0,0.0,54,0.00,,SCT,0.00,WeatherDisplay:10.37,2013-06-02 02:57:00,
2013-06-01 22:58:00,77.0,59.1,29.85,South,178,0.0,0.0,54,0.00,,SCT,0.00,WeatherDisplay:10.37,2013-06-02 02:58:00,
2013-06-01 23:00:00,76.8,58.9,29.86,WSW,248,0.0,0.9,54,0.00,,SCT,0.00,WeatherDisplay:10.37,2013-06-02 03:00:00,
2013-06-01 23:02:00,76.8,59.4,29.86,WSW,248,3.5,3.5,55,0.00,,SCT,0.00,WeatherDisplay:10.37,2013-06-02 03:02:00,
2013-06-01 23:03:00,76.8,59.4,29.86,WSW,252,4.0,4.0,55,0.00,,SCT,0.00,WeatherDisplay:10.37,2013-06-02 03:03:00,
2013-06-01 23:06:00,76.7,59.3,29.86,WSW,248,4.0,4.0,55,0.00,,SCT,0.00,WeatherDisplay:10.37,2013-06-02 03:06:00,
2013-06-01 23:07:00,76.7,59.3,29.86,WSW,248,3.5,3.5,55,0.00,,SCT,0.00,WeatherDisplay:10.37,2013-06-02 03:07:00,
2013-06-01 23:09:00,76.8,59.4,29.86,WSW,252,5.8,5.8,55,0.00,,SCT,0.00,WeatherDisplay:10.37,2013-06-02 03:09:00,
2013-06-01 23:10:00,76.8,59.4,29.87,WSW,250,5.8,5.8,55,0.00,,SCT,0.00,WeatherDisplay:10.37,2013-06-02 03:10:00,
2013-06-01 23:12:00,76.8,59.9,29.86,WSW,257,6.0,6.0,56,0.00,,SCT,0.00,WeatherDisplay:10.37,2013-06-02 03:12:00,
2013-06-01 23:14:00,76.8,59.9,29.86,West,265,6.9,6.9,56,0.00,,SCT,0.00,WeatherDisplay:10.37,2013-06-02 03:14:00,
2013-06-01 23:15:00,76.8,59.9,29.87,West,268,12.0,12.0,56,0.00,,SCT,0.00,WeatherDisplay:10.37,2013-06-02 03:15:00,
2013-06-01 23:16:00,76.8,59.9,29.87,WSW,253,15.0,15.0,56,0.00,,SCT,0.00,WeatherDisplay:10.37,2013-06-02 03:16:00,
2013-06-01 23:18:00,76.8,59.9,29.88,South,169,13.8,13.8,56,0.00,,SCT,0.00,WeatherDisplay:10.37,2013-06-02 03:18:00,
2013-06-01 23:19:00,77.0,60.1,29.88,WSW,244,13.0,13.0,56,0.00,,SCT,0.00,WeatherDisplay:10.37,2013-06-02 03:19:00,
2013-06-01 23:20:00,77.0,60.6,29.88,SW,219,11.5,11.5,57,0.00,,SCT,0.00,WeatherDisplay:10.37,2013-06-02 03:20:00,
2013-06-01 23:21:00,77.0,60.1,29.88,SW,222,12.7,12.7,56,0.00,,SCT,0.00,WeatherDisplay:10.37,2013-06-02 03:21:00,
2013-06-01 23:22:00,77.0,60.1,29.88,SSW,198,3.5,3.5,56,0.00,,SCT,0.00,WeatherDisplay:10.37,2013-06-02 03:22:00,
2013-06-01 23:25:00,77.0,60.6,29.88,SW,230,6.9,6.9,57,0.00,,SCT,0.00,WeatherDisplay:10.37,2013-06-02 03:25:00,
2013-06-01 23:26:00,77.0,60.6,29.88,SW,230,0.0,0.0,57,0.00,,SCT,0.00,WeatherDisplay:10.37,2013-06-02 03:26:00,
2013-06-01 23:27:00,77.0,60.6,29.88,SW,230,0.0,0.0,57,0.00,,SCT,0.00,WeatherDisplay:10.37,2013-06-02 03:27:00,
2013-06-01 23:29:00,77.0,60.6,29.88,WSW,242,4.6,4.6,57,0.00,,SCT,0.00,WeatherDisplay:10.37,2013-06-02 03:29:00,
2013-06-01 23:30:00,76.8,60.4,29.88,WSW,245,4.6,4.6,57,0.00,,SCT,0.00,WeatherDisplay:10.37,2013-06-02 03:30:00,
2013-06-01 23:35:00,76.7,60.8,29.88,SW,232,3.5,0.0,58,0.00,,SCT,0.00,WeatherDisplay:10.37,2013-06-02 03:35:00,
2013-06-01 23:36:00,76.5,60.6,29.88,SSW,201,1.1,1.1,58,0.01,RA,SCT,0.01,WeatherDisplay:10.37,2013-06-02 03:36:00,
2013-06-01 23:40:00,76.1,60.2,29.87,SSW,201,0.0,0.0,58,0.01,RA,SCT,0.02,WeatherDisplay:10.37,2013-06-02 03:40:00,
2013-06-01 23:41:00,76.0,60.2,29.87,SSW,201,0.0,0.0,58,0.02,RA,SCT,0.02,WeatherDisplay:10.37,2013-06-02 03:41:00,
2013-06-01 23:43:00,75.8,60.4,29.86,SSW,197,0.0,0.0,59,0.03,RA,SCT,0.03,WeatherDisplay:10.37,2013-06-02 03:43:00,
2013-06-01 23:45:00,75.6,60.7,29.86,South,185,2.3,0.0,60,0.03,RA,SCT,0.03,WeatherDisplay:10.37,2013-06-02 03:45:00,
2013-06-01 23:46:00,75.4,60.5,29.86,South,185,1.1,0.0,60,0.03,RA,SCT,0.03,WeatherDisplay:10.37,2013-06-02 03:46:00,
2013-06-01 23:47:00,75.4,60.5,29.86,South,185,0.0,0.0,60,0.03,RA,SCT,0.03,WeatherDisplay:10.37,2013-06-02 03:47:00,
2013-06-01 23:49:00,75.1,60.7,29.85,South,185,0.0,0.0,61,0.03,RA,SCT,0.03,WeatherDisplay:10.37,2013-06-02 03:49:00,
2013-06-01 23:52:00,74.6,60.3,29.85,South,183,0.0,0.0,61,0.03,,SCT,0.03,WeatherDisplay:10.37,2013-06-02 03:52:00,
2013-06-01 23:56:00,74.0,60.2,29.85,South,183,0.0,0.0,62,0.03,,SCT,0.03,WeatherDisplay:10.37,2013-06-02 03:56:00,
2013-06-01 23:57:00,73.9,60.1,29.85,South,183,0.0,0.0,62,0.03,,SCT,0.03,WeatherDisplay:10.37,2013-06-02 03:57:00,